Wetterdaten: Dienstag, 26.12.2017
Datum Zeit Temp. Aussen Temp. o. S. +5cm Feuchte Auss BlattFeu 1 Luftdruck Regen Sonnenschein Regendauer Solar Windben Empfang
26.12.2017 00:00 4,2 C 3,9 C 2,8 C 85 % 0 lf 1006,5 hPa 0,0 l/m 0 min 0 min 0 W/m 22,5 km/h (4 Bft) 97,83 %
26.12.2017 00:02 4,2 C 3,9 C 2,2 C 85 % 0 lf 1006,6 hPa 0,0 l/m 0 min 0 min 0 W/m 24,8 km/h (4 Bft) 95,24 %
26.12.2017 00:04 4,2 C 3,9 C 2,2 C 85 % 0 lf 1006,5 hPa 0,0 l/m 0 min 0 min 0 W/m 24,8 km/h (4 Bft) 95,74 %
26.12.2017 00:07 4,1 C 3,9 C 2,2 C 85 % 0 lf 1006,5 hPa 0,0 l/m 0 min 0 min 0 W/m 36,0 km/h (5 Bft) 95,74 %
26.12.2017 00:08 4,1 C 3,9 C 2,2 C 85 % 0 lf 1006,5 hPa 0,0 l/m 0 min 0 min 0 W/m 36,0 km/h (5 Bft) 95,74 %
26.12.2017 00:10 4,1 C 3,9 C 2,2 C 85 % 0 lf 1006,4 hPa 0,0 l/m 0 min 0 min 0 W/m 36,0 km/h (5 Bft) 96,43 %
26.12.2017 00:12 4,0 C 3,3 C 2,2 C 85 % 0 lf 1006,4 hPa 0,0 l/m 0 min 0 min 0 W/m 36,0 km/h (5 Bft) 93,48 %
26.12.2017 00:14 4,0 C 3,3 C 2,2 C 85 % 0 lf 1006,4 hPa 0,0 l/m 0 min 0 min 0 W/m 24,8 km/h (4 Bft) 95,74 %
26.12.2017 00:16 3,9 C 3,3 C 2,2 C 85 % 0 lf 1006,4 hPa 0,0 l/m 0 min 0 min 0 W/m 24,8 km/h (4 Bft) 95,74 %
26.12.2017 00:18 3,9 C 3,3 C 2,2 C 85 % 0 lf 1006,3 hPa 0,0 l/m 0 min 0 min 0 W/m 18,0 km/h (3 Bft) 95,74 %
26.12.2017 00:20 3,9 C 3,3 C 1,7 C 85 % 0 lf 1006,3 hPa 0,0 l/m 0 min 0 min 0 W/m 22,5 km/h (4 Bft) 95,74 %
26.12.2017 00:22 3,8 C 3,3 C 1,7 C 85 % 0 lf 1006,2 hPa 0,0 l/m 0 min 0 min 0 W/m 18,0 km/h (3 Bft) 97,83 %
26.12.2017 00:24 3,8 C 3,3 C 1,7 C 85 % 0 lf 1006,1 hPa 0,0 l/m 0 min 0 min 0 W/m 18,0 km/h (3 Bft) 97,87 %
26.12.2017 00:26 3,7 C 3,3 C 1,7 C 85 % 0 lf 1006,1 hPa 0,0 l/m 0 min 0 min 0 W/m 24,8 km/h (4 Bft) 91,49 %
26.12.2017 00:28 3,7 C 2,8 C 1,7 C 85 % 0 lf 1006,2 hPa 0,0 l/m 0 min 0 min 0 W/m 18,0 km/h (3 Bft) 91,49 %
26.12.2017 00:30 3,7 C 2,8 C 1,7 C 86 % 0 lf 1006,2 hPa 0,0 l/m 0 min 0 min 0 W/m 15,8 km/h (3 Bft) 95,74 %
26.12.2017 00:32 3,6 C 3,3 C 1,7 C 86 % 0 lf 1006,1 hPa 0,0 l/m 0 min 0 min 0 W/m 29,3 km/h (5 Bft) 93,62 %
26.12.2017 00:34 3,6 C 2,8 C 1,7 C 86 % 0 lf 1006,0 hPa 0,0 l/m 0 min 0 min 0 W/m 20,3 km/h (4 Bft) 95,65 %
26.12.2017 00:36 3,5 C 2,8 C 1,7 C 86 % 0 lf 1006,0 hPa 0,0 l/m 0 min 0 min 0 W/m 20,3 km/h (4 Bft) 91,49 %
26.12.2017 00:38 3,5 C 2,8 C 1,7 C 86 % 0 lf 1006,0 hPa 0,0 l/m 0 min 0 min 0 W/m 18,0 km/h (3 Bft) 95,74 %
26.12.2017 00:40 3,4 C 3,3 C 1,7 C 87 % 0 lf 1005,9 hPa 0,0 l/m 0 min 0 min 0 W/m 24,8 km/h (4 Bft) 95,74 %
26.12.2017 00:42 3,4 C 3,3 C 1,7 C 87 % 0 lf 1005,9 hPa 0,0 l/m 0 min 0 min 0 W/m 27,0 km/h (4 Bft) 95,74 %
26.12.2017 00:44 3,4 C 3,3 C 1,7 C 87 % 0 lf 1005,8 hPa 0,0 l/m 0 min 0 min 0 W/m 29,3 km/h (5 Bft) 95,74 %
26.12.2017 00:46 3,4 C 3,3 C 2,2 C 87 % 0 lf 1005,8 hPa 0,0 l/m 0 min 0 min 0 W/m 33,8 km/h (5 Bft) 95,65 %
26.12.2017 00:48 3,4 C 3,3 C 2,2 C 88 % 0 lf 1005,7 hPa 0,0 l/m 0 min 0 min 0 W/m 27,0 km/h (4 Bft) 91,49 %
26.12.2017 00:50 3,4 C 3,3 C 2,2 C 87 % 0 lf 1005,6 hPa 0,0 l/m 0 min 0 min 0 W/m 22,5 km/h (4 Bft) 95,74 %
26.12.2017 00:52 3,4 C 3,3 C 2,2 C 88 % 0 lf 1005,6 hPa 0,0 l/m 0 min 0 min 0 W/m 20,3 km/h (4 Bft) 93,62 %
26.12.2017 00:54 3,4 C 3,3 C 2,2 C 88 % 0 lf 1005,6 hPa 0,0 l/m 0 min 0 min 0 W/m 20,3 km/h (4 Bft) 91,49 %
26.12.2017 00:56 3,4 C 3,3 C 2,2 C 88 % 0 lf 1005,4 hPa 0,0 l/m 0 min 0 min 0 W/m 24,8 km/h (4 Bft) 95,74 %
26.12.2017 00:58 3,4 C 3,3 C 2,2 C 88 % 0 lf 1005,4 hPa 0,0 l/m 0 min 0 min 0 W/m 27,0 km/h (4 Bft) 95,65 %
26.12.2017 01:00 3,4 C 3,3 C 2,2 C 88 % 0 lf 1005,3 hPa 0,0 l/m 0 min 0 min 0 W/m 29,3 km/h (5 Bft) 95,74 %
26.12.2017 01:02 3,4 C 3,3 C 2,2 C 88 % 0 lf 1005,2 hPa 0,0 l/m 0 min 0 min 0 W/m 22,5 km/h (4 Bft) 93,62 %
26.12.2017 01:04 3,4 C 3,3 C 2,2 C 88 % 0 lf 1005,1 hPa 0,0 l/m 0 min 0 min 0 W/m 24,8 km/h (4 Bft) 93,62 %
26.12.2017 01:06 3,4 C 3,3 C 2,2 C 88 % 0 lf 1005,1 hPa 0,0 l/m 0 min 0 min 0 W/m 20,3 km/h (4 Bft) 89,36 %
26.12.2017 01:08 3,4 C 3,3 C 2,2 C 88 % 0 lf 1004,9 hPa 0,0 l/m 0 min 0 min 0 W/m 29,3 km/h (5 Bft) 97,87 %
26.12.2017 01:10 3,4 C 3,3 C 2,2 C 88 % 0 lf 1004,9 hPa 0,0 l/m 0 min 0 min 0 W/m 20,3 km/h (4 Bft) 91,30 %
26.12.2017 01:12 3,4 C 3,3 C 2,2 C 89 % 0 lf 1004,8 hPa 0,0 l/m 0 min 0 min 0 W/m 24,8 km/h (4 Bft) 97,87 %
26.12.2017 01:14 3,4 C 3,3 C 1,7 C 89 % 0 lf 1004,7 hPa 0,0 l/m 0 min 0 min 0 W/m 31,5 km/h (5 Bft) 97,87 %
26.12.2017 01:16 3,4 C 3,3 C 1,7 C 89 % 0 lf 1004,7 hPa 0,0 l/m 0 min 0 min 0 W/m 24,8 km/h (4 Bft) 97,87 %
26.12.2017 01:18 3,3 C 3,3 C 1,7 C 89 % 0 lf 1004,6 hPa 0,0 l/m 0 min 0 min 0 W/m 20,3 km/h (4 Bft) 100,00 %
26.12.2017 01:20 3,3 C 3,3 C 1,7 C 89 % 0 lf 1004,5 hPa 0,0 l/m 0 min 0 min 0 W/m 15,8 km/h (3 Bft) 100,00 %
26.12.2017 01:22 3,3 C 2,8 C 1,7 C 89 % 0 lf 1004,4 hPa 0,0 l/m 0 min 0 min 0 W/m 18,0 km/h (3 Bft) 97,83 %
26.12.2017 01:24 3,3 C 2,8 C 1,7 C 89 % 0 lf 1004,4 hPa 0,0 l/m 0 min 0 min 0 W/m 22,5 km/h (4 Bft) 93,62 %
26.12.2017 01:26 3,3 C 2,8 C 1,7 C 89 % 0 lf 1004,4 hPa 0,0 l/m 0 min 0 min 0 W/m 24,8 km/h (4 Bft) 100,00 %
26.12.2017 01:28 3,2 C 2,8 C 1,1 C 88 % 0 lf 1004,3 hPa 0,0 l/m 0 min 0 min 0 W/m 22,5 km/h (4 Bft) 100,00 %
26.12.2017 01:30 3,2 C 2,8 C 1,1 C 88 % 0 lf 1004,2 hPa 0,0 l/m 0 min 0 min 0 W/m 22,5 km/h (4 Bft) 100,00 %
26.12.2017 01:32 3,2 C 2,8 C 1,1 C 89 % 0 lf 1004,1 hPa 0,0 l/m 0 min 0 min 0 W/m 20,3 km/h (4 Bft) 100,00 %
26.12.2017 01:34 3,1 C 2,8 C 1,1 C 89 % 0 lf 1004,1 hPa 0,0 l/m 0 min 0 min 0 W/m 22,5 km/h (4 Bft) 100,00 %
26.12.2017 01:36 3,1 C 2,8 C 1,1 C 89 % 0 lf 1004,0 hPa 0,0 l/m 0 min 0 min 0 W/m 18,0 km/h (3 Bft) 97,87 %
26.12.2017 01:38 3,1 C 2,8 C 1,1 C 89 % 0 lf 1004,0 hPa 0,0 l/m 0 min 0 min 0 W/m 20,3 km/h (4 Bft) 100,00 %
26.12.2017 01:40 3,0 C 2,2 C 1,1 C 89 % 0 lf 1004,0 hPa 0,0 l/m 0 min 0 min 0 W/m 22,5 km/h (4 Bft) 100,00 %
26.12.2017 01:42 2,9 C 2,2 C 1,1 C 89 % 0 lf 1004,0 hPa 0,0 l/m 0 min 0 min 0 W/m 22,5 km/h (4 Bft) 97,87 %
26.12.2017 01:44 2,9 C 2,2 C 1,1 C 89 % 0 lf 1004,0 hPa 0,0 l/m 0 min 0 min 0 W/m 22,5 km/h (4 Bft) 100,00 %
26.12.2017 01:46 2,9 C 2,2 C 1,1 C 89 % 0 lf 1004,1 hPa 0,0 l/m 0 min 0 min 0 W/m 15,8 km/h (3 Bft) 100,00 %
26.12.2017 01:48 2,9 C 2,2 C 1,1 C 90 % 0 lf 1004,0 hPa 0,0 l/m 0 min 0 min 0 W/m 18,0 km/h (3 Bft) 97,87 %
26.12.2017 01:50 2,8 C 2,2 C 1,1 C 90 % 0 lf 1004,0 hPa 0,0 l/m 0 min 0 min 0 W/m 18,0 km/h (3 Bft) 100,00 %
26.12.2017 01:52 2,8 C 2,2 C 1,1 C 90 % 0 lf 1004,0 hPa 0,0 l/m 0 min 0 min 0 W/m 15,8 km/h (3 Bft) 100,00 %
26.12.2017 01:54 2,8 C 2,2 C 1,1 C 90 % 0 lf 1004,1 hPa 0,0 l/m 0 min 0 min 0 W/m 18,0 km/h (3 Bft) 100,00 %
26.12.2017 01:56 2,8 C 2,2 C 1,1 C 90 % 0 lf 1004,0 hPa 0,0 l/m 0 min 0 min 0 W/m 15,8 km/h (3 Bft) 100,00 %
26.12.2017 01:58 2,7 C 2,2 C 1,1 C 90 % 0 lf 1004,0 hPa 0,0 l/m 0 min 0 min 0 W/m 18,0 km/h (3 Bft) 95,74 %
26.12.2017 02:00 2,7 C 2,2 C 1,1 C 90 % 0 lf 1003,9 hPa 0,0 l/m 0 min 0 min 0 W/m 15,8 km/h (3 Bft) 95,74 %
26.12.2017 02:02 2,7 C 2,2 C 1,1 C 90 % 0 lf 1003,8 hPa 0,0 l/m 0 min 0 min 0 W/m 20,3 km/h (4 Bft) 97,87 %
26.12.2017 02:04 2,7 C 2,2 C 1,1 C 90 % 0 lf 1003,6 hPa 0,0 l/m 0 min 0 min 0 W/m 15,8 km/h (3 Bft) 95,74 %
26.12.2017 02:06 2,7 C 2,2 C 1,1 C 91 % 0 lf 1003,6 hPa 0,0 l/m 0 min 0 min 0 W/m 13,5 km/h (3 Bft) 95,74 %
26.12.2017 02:08 2,7 C 2,2 C 1,1 C 90 % 0 lf 1003,6 hPa 0,0 l/m 0 min 0 min 0 W/m 18,0 km/h (3 Bft) 97,83 %
26.12.2017 02:10 2,7 C 2,2 C 1,1 C 91 % 0 lf 1003,5 hPa 0,0 l/m 0 min 0 min 0 W/m 13,5 km/h (3 Bft) 97,87 %
26.12.2017 02:12 2,6 C 2,2 C 1,1 C 91 % 0 lf 1003,5 hPa 0,0 l/m 0 min 0 min 0 W/m 15,8 km/h (3 Bft) 97,87 %
26.12.2017 02:14 2,6 C 2,2 C 1,1 C 91 % 0 lf 1003,5 hPa 0,0 l/m 0 min 0 min 0 W/m 15,8 km/h (3 Bft) 91,49 %
26.12.2017 02:16 2,6 C 2,2 C 1,1 C 91 % 0 lf 1003,4 hPa 0,0 l/m 0 min 0 min 0 W/m 15,8 km/h (3 Bft) 95,74 %
26.12.2017 02:18 2,6 C 2,2 C 0,6 C 91 % 0 lf 1003,4 hPa 0,0 l/m 0 min 0 min 0 W/m 22,5 km/h (4 Bft) 97,87 %
26.12.2017 02:20 2,6 C 2,2 C 0,6 C 91 % 0 lf 1003,4 hPa 0,0 l/m 0 min 0 min 0 W/m 13,5 km/h (3 Bft) 95,65 %
26.12.2017 02:22 2,6 C 2,2 C 1,1 C 91 % 0 lf 1003,4 hPa 0,0 l/m 0 min 0 min 0 W/m 20,3 km/h (4 Bft) 97,87 %
26.12.2017 02:24 2,5 C 2,2 C 1,1 C 91 % 0 lf 1003,5 hPa 0,0 l/m 0 min 0 min 0 W/m 15,8 km/h (3 Bft) 95,74 %
26.12.2017 02:26 2,5 C 2,2 C 1,1 C 91 % 0 lf 1003,5 hPa 0,0 l/m 0 min 0 min 0 W/m 20,3 km/h (4 Bft) 93,62 %
26.12.2017 02:28 2,5 C 2,2 C 1,1 C 91 % 0 lf 1003,5 hPa 0,0 l/m 0 min 0 min 0 W/m 13,5 km/h (3 Bft) 95,74 %
26.12.2017 02:30 2,5 C 2,2 C 0,6 C 91 % 0 lf 1003,4 hPa 0,0 l/m 0 min 0 min 0 W/m 13,5 km/h (3 Bft) 91,49 %
26.12.2017 02:32 2,5 C 2,2 C 0,6 C 91 % 0 lf 1003,4 hPa 0,0 l/m 0 min 0 min 0 W/m 15,8 km/h (3 Bft) 93,48 %
26.12.2017 02:34 2,5 C 2,2 C 0,6 C 91 % 0 lf 1003,3 hPa 0,0 l/m 0 min 0 min 0 W/m 15,8 km/h (3 Bft) 93,62 %
26.12.2017 02:36 2,5 C 2,2 C 1,1 C 91 % 0 lf 1003,1 hPa 0,0 l/m 0 min 0 min 0 W/m 15,8 km/h (3 Bft) 93,62 %
26.12.2017 02:38 2,5 C 2,2 C 1,1 C 92 % 0 lf 1003,0 hPa 0,0 l/m 0 min 0 min 0 W/m 20,3 km/h (4 Bft) 91,49 %
26.12.2017 02:40 2,4 C 2,2 C 1,1 C 92 % 0 lf 1003,0 hPa 0,0 l/m 0 min 0 min 0 W/m 15,8 km/h (3 Bft) 93,62 %
26.12.2017 02:42 2,4 C 2,2 C 1,1 C 92 % 0 lf 1002,9 hPa 0,0 l/m 0 min 0 min 0 W/m 15,8 km/h (3 Bft) 91,30 %
26.12.2017 02:44 2,4 C 2,2 C 0,6 C 92 % 0 lf 1002,8 hPa 0,0 l/m 0 min 0 min 0 W/m 18,0 km/h (3 Bft) 93,62 %
26.12.2017 02:46 2,4 C 2,2 C 0,6 C 92 % 0 lf 1002,8 hPa 0,0 l/m 0 min 0 min 0 W/m 18,0 km/h (3 Bft) 93,62 %
26.12.2017 02:48 2,4 C 2,2 C 1,1 C 92 % 0 lf 1002,8 hPa 0,0 l/m 0 min 0 min 0 W/m 22,5 km/h (4 Bft) 93,62 %
26.12.2017 02:50 2,4 C 2,2 C 1,1 C 92 % 0 lf 1002,8 hPa 0,0 l/m 0 min 0 min 0 W/m 18,0 km/h (3 Bft) 93,62 %
26.12.2017 02:52 2,4 C 2,2 C 1,1 C 92 % 0 lf 1002,7 hPa 0,0 l/m 0 min 0 min 0 W/m 15,8 km/h (3 Bft) 91,49 %
26.12.2017 02:54 2,4 C 2,2 C 1,1 C 92 % 0 lf 1002,7 hPa 0,0 l/m 0 min 0 min 0 W/m 15,8 km/h (3 Bft) 93,48 %
26.12.2017 02:56 2,4 C 2,2 C 0,6 C 92 % 0 lf 1002,6 hPa 0,0 l/m 0 min 0 min 0 W/m 20,3 km/h (4 Bft) 95,74 %
26.12.2017 02:58 2,4 C 2,2 C 0,6 C 92 % 0 lf 1002,6 hPa 0,0 l/m 0 min 0 min 0 W/m 18,0 km/h (3 Bft) 95,74 %
26.12.2017 03:00 2,4 C 2,2 C 0,6 C 92 % 0 lf 1002,6 hPa 0,0 l/m 0 min 0 min 0 W/m 15,8 km/h (3 Bft) 93,62 %
26.12.2017 03:02 2,4 C 2,2 C 0,6 C 92 % 0 lf 1002,6 hPa 0,0 l/m 0 min 0 min 0 W/m 11,3 km/h (2 Bft) 95,74 %
26.12.2017 03:04 2,4 C 2,2 C 0,6 C 92 % 0 lf 1002,6 hPa 0,0 l/m 0 min 0 min 0 W/m 13,5 km/h (3 Bft) 95,74 %
26.12.2017 03:06 2,4 C 2,2 C 1,1 C 92 % 0 lf 1002,5 hPa 0,0 l/m 0 min 0 min 0 W/m 15,8 km/h (3 Bft) 97,83 %
26.12.2017 03:08 2,4 C 2,2 C 1,1 C 92 % 0 lf 1002,4 hPa 0,0 l/m 0 min 0 min 0 W/m 18,0 km/h (3 Bft) 97,87 %
26.12.2017 03:10 2,4 C 2,2 C 1,1 C 92 % 0 lf 1002,5 hPa 0,0 l/m 0 min 0 min 0 W/m 18,0 km/h (3 Bft) 100,00 %
26.12.2017 03:12 2,4 C 2,2 C 1,1 C 93 % 0 lf 1002,4 hPa 0,0 l/m 0 min 0 min 0 W/m 20,3 km/h (4 Bft) 100,00 %
26.12.2017 03:14 2,4 C 2,2 C 1,1 C 93 % 0 lf 1002,4 hPa 0,0 l/m 0 min 0 min 0 W/m 20,3 km/h (4 Bft) 100,00 %
26.12.2017 03:16 2,4 C 2,2 C 1,1 C 93 % 0 lf 1002,4 hPa 0,0 l/m 0 min 0 min 0 W/m 15,8 km/h (3 Bft) 97,87 %
26.12.2017 03:18 2,4 C 2,2 C 1,1 C 93 % 0 lf 1002,3 hPa 0,0 l/m 0 min 0 min 0 W/m 20,3 km/h (4 Bft) 95,65 %
26.12.2017 03:20 2,4 C 2,2 C 1,1 C 93 % 0 lf 1002,2 hPa 0,0 l/m 0 min 0 min 0 W/m 15,8 km/h (3 Bft) 100,00 %
26.12.2017 03:22 2,4 C 2,2 C 1,1 C 93 % 0 lf 1002,1 hPa 0,0 l/m 0 min 0 min 0 W/m 18,0 km/h (3 Bft) 100,00 %
26.12.2017 03:24 2,4 C 2,2 C 1,1 C 93 % 0 lf 1002,1 hPa 0,0 l/m 0 min 0 min 0 W/m 15,8 km/h (3 Bft) 100,00 %
26.12.2017 03:26 2,4 C 2,2 C 1,1 C 93 % 0 lf 1002,0 hPa 0,0 l/m 0 min 0 min 0 W/m 18,0 km/h (3 Bft) 97,87 %
26.12.2017 03:28 2,5 C 2,2 C 1,1 C 93 % 0 lf 1002,0 hPa 0,0 l/m 0 min 0 min 0 W/m 18,0 km/h (3 Bft) 93,62 %
26.12.2017 03:30 2,5 C 2,2 C 1,1 C 93 % 0 lf 1001,9 hPa 0,0 l/m 0 min 0 min 0 W/m 18,0 km/h (3 Bft) 97,83 %
26.12.2017 03:32 2,5 C 2,2 C 1,1 C 93 % 0 lf 1001,9 hPa 0,0 l/m 0 min 0 min 0 W/m 18,0 km/h (3 Bft) 97,87 %
26.12.2017 03:34 2,5 C 2,2 C 1,1 C 93 % 0 lf 1001,8 hPa 0,0 l/m 0 min 0 min 0 W/m 18,0 km/h (3 Bft) 97,87 %
26.12.2017 03:36 2,5 C 2,2 C 1,1 C 93 % 0 lf 1001,6 hPa 0,0 l/m 0 min 0 min 0 W/m 18,0 km/h (3 Bft) 100,00 %
26.12.2017 03:38 2,5 C 2,2 C 1,1 C 93 % 0 lf 1001,6 hPa 0,0 l/m 0 min 0 min 0 W/m 22,5 km/h (4 Bft) 97,87 %
26.12.2017 03:40 2,5 C 2,2 C 1,1 C 93 % 0 lf 1001,6 hPa 0,0 l/m 0 min 0 min 0 W/m 20,3 km/h (4 Bft) 95,74 %
26.12.2017 03:42 2,5 C 2,8 C 1,1 C 93 % 0 lf 1001,5 hPa 0,0 l/m 0 min 0 min 0 W/m 20,3 km/h (4 Bft) 97,83 %
26.12.2017 03:44 2,5 C 2,2 C 1,1 C 93 % 0 lf 1001,4 hPa 0,0 l/m 0 min 0 min 0 W/m 18,0 km/h (3 Bft) 95,74 %
26.12.2017 03:46 2,5 C 2,2 C 1,1 C 93 % 0 lf 1001,4 hPa 0,0 l/m 0 min 0 min 0 W/m 18,0 km/h (3 Bft) 93,62 %
26.12.2017 03:48 2,6 C 2,2 C 1,1 C 93 % 0 lf 1001,3 hPa 0,0 l/m 0 min 0 min 0 W/m 15,8 km/h (3 Bft) 97,87 %
26.12.2017 03:50 2,6 C 2,8 C 1,1 C 93 % 0 lf 1001,1 hPa 0,0 l/m 0 min 0 min 0 W/m 15,8 km/h (3 Bft) 97,87 %
26.12.2017 03:52 2,6 C 2,8 C 1,1 C 93 % 0 lf 1001,1 hPa 0,0 l/m 0 min 0 min 0 W/m 18,0 km/h (3 Bft) 97,87 %
26.12.2017 03:54 2,6 C 2,8 C 1,1 C 94 % 0 lf 1001,0 hPa 0,0 l/m 0 min 0 min 0 W/m 15,8 km/h (3 Bft) 95,65 %
26.12.2017 03:56 2,6 C 2,8 C 1,1 C 94 % 0 lf 1000,9 hPa 0,0 l/m 0 min 0 min 0 W/m 18,0 km/h (3 Bft) 93,62 %
26.12.2017 03:58 2,6 C 2,8 C 1,1 C 94 % 0 lf 1000,8 hPa 0,0 l/m 0 min 0 min 0 W/m 13,5 km/h (3 Bft) 95,74 %
26.12.2017 04:00 2,7 C 2,8 C 1,1 C 94 % 0 lf 1000,7 hPa 0,0 l/m 0 min 0 min 0 W/m 15,8 km/h (3 Bft) 97,87 %
26.12.2017 04:05 2,7 C 2,8 C 1,1 C 94 % 0 lf 1000,7 hPa 0,0 l/m 0 min 0 min 0 W/m 18,0 km/h (3 Bft) 100,00 %
26.12.2017 04:06 2,7 C 3,3 C 1,1 C 94 % 0 lf 1000,6 hPa 0,0 l/m 0 min 0 min 0 W/m 11,3 km/h (2 Bft) 95,65 %
26.12.2017 04:08 2,8 C 3,3 C 1,1 C 94 % 0 lf 1000,7 hPa 0,0 l/m 0 min 0 min 0 W/m 11,3 km/h (2 Bft) 95,74 %
26.12.2017 04:10 2,8 C 3,3 C 1,7 C 94 % 0 lf 1000,5 hPa 0,0 l/m 0 min 0 min 0 W/m 13,5 km/h (3 Bft) 97,87 %
26.12.2017 04:12 2,9 C 3,3 C 1,7 C 94 % 0 lf 1000,4 hPa 0,0 l/m 0 min 0 min 0 W/m 13,5 km/h (3 Bft) 97,87 %
26.12.2017 04:14 2,9 C 3,3 C 1,7 C 94 % 0 lf 1000,4 hPa 0,0 l/m 0 min 0 min 0 W/m 15,8 km/h (3 Bft) 97,87 %
26.12.2017 04:16 3,0 C 3,9 C 1,7 C 94 % 0 lf 1000,4 hPa 0,0 l/m 0 min 0 min 0 W/m 18,0 km/h (3 Bft) 100,00 %
26.12.2017 04:18 3,1 C 3,9 C 1,7 C 94 % 0 lf 1000,3 hPa 0,0 l/m 0 min 0 min 0 W/m 13,5 km/h (3 Bft) 100,00 %
26.12.2017 04:20 3,2 C 3,9 C 2,2 C 94 % 0 lf 1000,3 hPa 0,0 l/m 0 min 0 min 0 W/m 15,8 km/h (3 Bft) 100,00 %
26.12.2017 04:22 3,3 C 4,4 C 2,2 C 94 % 0 lf 1000,2 hPa 0,0 l/m 0 min 0 min 0 W/m 11,3 km/h (2 Bft) 97,87 %
26.12.2017 04:24 3,3 C 4,4 C 2,2 C 94 % 0 lf 1000,2 hPa 0,0 l/m 0 min 0 min 0 W/m 13,5 km/h (3 Bft) 100,00 %
26.12.2017 04:26 3,4 C 4,4 C 2,2 C 94 % 0 lf 1000,3 hPa 0,0 l/m 0 min 0 min 0 W/m 13,5 km/h (3 Bft) 93,62 %
26.12.2017 04:28 3,5 C 4,4 C 2,2 C 94 % 0 lf 1000,3 hPa 0,0 l/m 0 min 0 min 0 W/m 13,5 km/h (3 Bft) 97,83 %
26.12.2017 04:30 3,6 C 4,4 C 2,2 C 95 % 0 lf 1000,2 hPa 0,0 l/m 0 min 0 min 0 W/m 11,3 km/h (2 Bft) 97,87 %
26.12.2017 04:32 3,6 C 4,4 C 2,2 C 95 % 0 lf 1000,1 hPa 0,0 l/m 0 min 0 min 0 W/m 15,8 km/h (3 Bft) 95,74 %
26.12.2017 04:34 3,7 C 4,4 C 2,2 C 95 % 0 lf 1000,1 hPa 0,0 l/m 0 min 0 min 0 W/m 13,5 km/h (3 Bft) 97,87 %
26.12.2017 04:36 3,7 C 4,4 C 2,2 C 95 % 0 lf 1000,1 hPa 0,0 l/m 0 min 0 min 0 W/m 18,0 km/h (3 Bft) 95,74 %
26.12.2017 04:38 3,8 C 4,4 C 2,8 C 95 % 0 lf 1000,0 hPa 0,0 l/m 0 min 0 min 0 W/m 27,0 km/h (4 Bft) 97,87 %
26.12.2017 04:40 3,9 C 5,0 C 2,8 C 95 % 0 lf 1000,0 hPa 0,0 l/m 0 min 0 min 0 W/m 22,5 km/h (4 Bft) 97,83 %
26.12.2017 04:42 4,0 C 5,0 C 2,8 C 95 % 0 lf 999,8 hPa 0,0 l/m 0 min 0 min 0 W/m 22,5 km/h (4 Bft) 95,74 %
26.12.2017 04:44 4,1 C 5,0 C 3,3 C 95 % 0 lf 999,7 hPa 0,0 l/m 0 min 0 min 0 W/m 15,8 km/h (3 Bft) 97,87 %
26.12.2017 04:46 4,2 C 5,0 C 2,8 C 95 % 0 lf 999,7 hPa 0,0 l/m 0 min 0 min 0 W/m 18,0 km/h (3 Bft) 95,74 %
26.12.2017 04:48 4,3 C 5,0 C 2,8 C 95 % 0 lf 999,7 hPa 0,0 l/m 0 min 0 min 0 W/m 20,3 km/h (4 Bft) 97,87 %
26.12.2017 04:50 4,4 C 5,0 C 3,3 C 95 % 0 lf 999,6 hPa 0,0 l/m 0 min 0 min 0 W/m 18,0 km/h (3 Bft) 95,74 %
26.12.2017 04:52 4,4 C 5,6 C 3,3 C 95 % 0 lf 999,7 hPa 0,0 l/m 0 min 0 min 0 W/m 24,8 km/h (4 Bft) 97,83 %
26.12.2017 04:54 4,6 C 5,6 C 3,3 C 95 % 0 lf 999,7 hPa 0,0 l/m 0 min 0 min 0 W/m 31,5 km/h (5 Bft) 95,74 %
26.12.2017 04:56 4,7 C 5,6 C 3,9 C 95 % 0 lf 999,5 hPa 0,0 l/m 0 min 0 min 0 W/m 27,0 km/h (4 Bft) 95,74 %
26.12.2017 04:58 4,8 C 6,1 C 3,9 C 95 % 0 lf 999,5 hPa 0,0 l/m 0 min 0 min 0 W/m 22,5 km/h (4 Bft) 97,87 %
26.12.2017 05:00 4,9 C 6,1 C 3,9 C 94 % 0 lf 999,4 hPa 0,0 l/m 0 min 0 min 0 W/m 24,8 km/h (4 Bft) 97,87 %
26.12.2017 05:02 5,1 C 6,1 C 3,9 C 95 % 0 lf 999,4 hPa 0,0 l/m 0 min 0 min 0 W/m 29,3 km/h (5 Bft) 95,65 %
26.12.2017 05:04 5,2 C 6,1 C 4,4 C 94 % 0 lf 999,4 hPa 0,0 l/m 0 min 0 min 0 W/m 33,8 km/h (5 Bft) 97,87 %
26.12.2017 05:06 5,3 C 6,7 C 4,4 C 94 % 0 lf 999,4 hPa 0,0 l/m 0 min 0 min 0 W/m 31,5 km/h (5 Bft) 95,74 %
26.12.2017 05:08 5,4 C 6,7 C 4,4 C 94 % 0 lf 999,3 hPa 0,0 l/m 0 min 0 min 0 W/m 31,5 km/h (5 Bft) 95,74 %
26.12.2017 05:10 5,6 C 6,7 C 5,0 C 94 % 0 lf 999,4 hPa 0,0 l/m 0 min 0 min 0 W/m 38,3 km/h (5 Bft) 97,87 %
26.12.2017 05:12 5,8 C 6,7 C 5,0 C 93 % 0 lf 999,4 hPa 0,0 l/m 0 min 0 min 0 W/m 24,8 km/h (4 Bft) 97,87 %
26.12.2017 05:14 5,9 C 6,7 C 5,0 C 93 % 0 lf 999,3 hPa 0,0 l/m 0 min 0 min 0 W/m 33,8 km/h (5 Bft) 95,65 %
26.12.2017 05:16 6,0 C 6,7 C 5,0 C 92 % 0 lf 999,2 hPa 0,0 l/m 0 min 0 min 0 W/m 33,8 km/h (5 Bft) 95,74 %
26.12.2017 05:18 6,1 C 6,7 C 4,4 C 92 % 0 lf 999,1 hPa 0,0 l/m 0 min 0 min 0 W/m 24,8 km/h (4 Bft) 93,62 %
26.12.2017 05:20 6,2 C 6,7 C 4,4 C 91 % 0 lf 999,1 hPa 0,0 l/m 0 min 0 min 0 W/m 36,0 km/h (5 Bft) 95,74 %
26.12.2017 05:22 6,3 C 6,7 C 5,0 C 90 % 0 lf 999,1 hPa 0,0 l/m 0 min 0 min 0 W/m 27,0 km/h (4 Bft) 97,87 %
26.12.2017 05:24 6,4 C 6,7 C 5,0 C 90 % 0 lf 998,8 hPa 0,0 l/m 0 min 0 min 0 W/m 22,5 km/h (4 Bft) 97,87 %
26.12.2017 05:26 6,4 C 6,7 C 5,0 C 89 % 0 lf 998,8 hPa 0,0 l/m 0 min 0 min 0 W/m 33,8 km/h (5 Bft) 100,00 %
26.12.2017 05:28 6,5 C 7,2 C 5,0 C 88 % 0 lf 998,7 hPa 0,0 l/m 0 min 0 min 0 W/m 33,8 km/h (5 Bft) 97,87 %
26.12.2017 05:30 6,6 C 6,7 C 5,0 C 88 % 0 lf 998,7 hPa 0,0 l/m 0 min 0 min 0 W/m 27,0 km/h (4 Bft) 97,87 %
26.12.2017 05:32 6,6 C 6,7 C 5,0 C 87 % 0 lf 998,6 hPa 0,0 l/m 0 min 0 min 0 W/m 18,0 km/h (3 Bft) 95,74 %
26.12.2017 05:34 6,7 C 7,2 C 5,0 C 87 % 0 lf 998,6 hPa 0,0 l/m 0 min 0 min 0 W/m 24,8 km/h (4 Bft) 97,87 %
26.12.2017 05:36 6,8 C 7,2 C 5,0 C 86 % 0 lf 998,6 hPa 0,0 l/m 0 min 0 min 0 W/m 24,8 km/h (4 Bft) 97,87 %
26.12.2017 05:40 6,8 C 7,2 C 5,0 C 86 % 0 lf 998,6 hPa 0,0 l/m 0 min 0 min 0 W/m 22,5 km/h (4 Bft) 37,72 %
26.12.2017 05:46 7,0 C 7,2 C 5,0 C 84 % 0 lf 998,5 hPa 0,0 l/m 0 min 0 min 0 W/m 38,3 km/h (5 Bft) 100,00 %
26.12.2017 05:48 7,1 C 7,2 C 5,0 C 84 % 0 lf 998,5 hPa 0,0 l/m 0 min 0 min 0 W/m 27,0 km/h (4 Bft) 100,00 %
26.12.2017 05:50 7,2 C 7,8 C 5,6 C 84 % 0 lf 998,5 hPa 0,0 l/m 0 min 0 min 0 W/m 42,8 km/h (6 Bft) 95,74 %
26.12.2017 05:52 7,3 C 7,8 C 6,1 C 84 % 0 lf 998,5 hPa 0,0 l/m 0 min 0 min 0 W/m 31,5 km/h (5 Bft) 98,00 %
26.12.2017 05:54 7,3 C 7,8 C 6,1 C 83 % 0 lf 998,2 hPa 0,0 l/m 0 min 0 min 0 W/m 27,0 km/h (4 Bft) 95,74 %
26.12.2017 05:56 7,4 C 7,8 C 6,1 C 83 % 0 lf 998,2 hPa 0,0 l/m 0 min 0 min 0 W/m 42,8 km/h (6 Bft) 97,83 %
26.12.2017 05:58 7,5 C 7,8 C 6,1 C 83 % 0 lf 998,2 hPa 0,0 l/m 0 min 0 min 0 W/m 31,5 km/h (5 Bft) 93,62 %
26.12.2017 06:00 7,6 C 7,8 C 6,1 C 82 % 0 lf 998,2 hPa 0,0 l/m 0 min 0 min 0 W/m 24,8 km/h (4 Bft) 97,87 %
26.12.2017 06:02 7,6 C 7,8 C 6,1 C 82 % 0 lf 998,1 hPa 0,0 l/m 0 min 0 min 0 W/m 24,8 km/h (4 Bft) 97,87 %
26.12.2017 06:04 7,6 C 7,8 C 6,1 C 82 % 0 lf 998,1 hPa 0,0 l/m 0 min 0 min 0 W/m 31,5 km/h (5 Bft) 97,96 %
26.12.2017 06:06 7,7 C 7,8 C 6,1 C 82 % 0 lf 998,1 hPa 0,0 l/m 0 min 0 min 0 W/m 38,3 km/h (5 Bft) 97,87 %
26.12.2017 06:10 7,8 C 8,3 C 6,7 C 81 % 0 lf 998,0 hPa 0,0 l/m 0 min 0 min 0 W/m 45,1 km/h (6 Bft) 96,81 %
26.12.2017 06:12 7,9 C 8,3 C 6,7 C 81 % 0 lf 997,9 hPa 0,0 l/m 0 min 0 min 0 W/m 31,5 km/h (5 Bft) 97,87 %
26.12.2017 06:14 8,0 C 8,3 C 6,7 C 81 % 0 lf 997,9 hPa 0,0 l/m 0 min 0 min 0 W/m 38,3 km/h (5 Bft) 97,87 %
26.12.2017 06:16 8,1 C 8,3 C 6,7 C 80 % 0 lf 997,9 hPa 0,0 l/m 0 min 0 min 0 W/m 49,6 km/h (6 Bft) 95,74 %
26.12.2017 06:18 8,1 C 8,3 C 6,7 C 80 % 0 lf 997,8 hPa 0,0 l/m 0 min 0 min 0 W/m 36,0 km/h (5 Bft) 93,48 %
26.12.2017 06:20 8,2 C 8,3 C 6,7 C 80 % 0 lf 998,1 hPa 0,0 l/m 0 min 0 min 0 W/m 31,5 km/h (5 Bft) 93,62 %
26.12.2017 06:22 8,2 C 8,3 C 6,7 C 80 % 0 lf 998,0 hPa 0,0 l/m 0 min 0 min 0 W/m 31,5 km/h (5 Bft) 93,62 %
26.12.2017 06:24 8,2 C 8,3 C 6,7 C 80 % 0 lf 998,3 hPa 0,0 l/m 0 min 0 min 0 W/m 54,1 km/h (7 Bft) 91,49 %
26.12.2017 06:26 8,3 C 8,3 C 6,7 C 80 % 0 lf 998,2 hPa 0,0 l/m 0 min 0 min 0 W/m 33,8 km/h (5 Bft) 93,62 %
26.12.2017 06:28 8,4 C 8,3 C 6,7 C 80 % 0 lf 998,0 hPa 0,0 l/m 0 min 0 min 0 W/m 33,8 km/h (5 Bft) 91,30 %
26.12.2017 06:30 8,4 C 8,3 C 6,7 C 80 % 0 lf 997,9 hPa 0,0 l/m 0 min 0 min 0 W/m 24,8 km/h (4 Bft) 93,62 %
26.12.2017 06:32 8,4 C 8,3 C 6,7 C 80 % 0 lf 998,0 hPa 0,0 l/m 0 min 0 min 0 W/m 29,3 km/h (5 Bft) 95,74 %
26.12.2017 06:34 8,4 C 8,3 C 7,2 C 80 % 0 lf 997,9 hPa 0,0 l/m 0 min 0 min 0 W/m 18,0 km/h (3 Bft) 93,62 %
26.12.2017 06:36 8,5 C 8,3 C 7,2 C 80 % 1 lf 998,0 hPa 0,0 l/m 0 min 2 min 0 W/m 63,1 km/h (8 Bft) 91,49 %
26.12.2017 06:38 8,6 C 8,3 C 6,7 C 80 % 15 lf 998,1 hPa 0,0 l/m 0 min 2 min 0 W/m 33,8 km/h (5 Bft) 93,62 %
26.12.2017 06:40 8,6 C 7,2 C 5,6 C 81 % 15 lf 998,1 hPa 0,0 l/m 0 min 2 min 0 W/m 42,8 km/h (6 Bft) 91,30 %
26.12.2017 06:42 8,6 C 6,7 C 5,0 C 82 % 15 lf 998,1 hPa 0,0 l/m 0 min 2 min 0 W/m 40,6 km/h (6 Bft) 95,74 %
26.12.2017 06:44 8,4 C 6,1 C 5,0 C 83 % 15 lf 998,2 hPa 0,2 l/m 0 min 2 min 0 W/m 63,1 km/h (8 Bft) 91,49 %
26.12.2017 06:46 8,3 C 6,1 C 5,0 C 84 % 15 lf 998,3 hPa 0,0 l/m 0 min 2 min 0 W/m 31,5 km/h (5 Bft) 93,62 %
26.12.2017 06:48 8,2 C 6,1 C 5,0 C 85 % 15 lf 998,2 hPa 0,0 l/m 0 min 2 min 0 W/m 45,1 km/h (6 Bft) 93,62 %
26.12.2017 06:50 8,1 C 6,1 C 5,0 C 85 % 15 lf 998,2 hPa 0,2 l/m 0 min 2 min 0 W/m 40,6 km/h (6 Bft) 93,62 %
26.12.2017 06:52 8,0 C 6,1 C 5,0 C 86 % 15 lf 998,1 hPa 0,0 l/m 0 min 2 min 0 W/m 31,5 km/h (5 Bft) 95,65 %
26.12.2017 06:54 7,9 C 6,1 C 5,0 C 86 % 15 lf 998,1 hPa 0,0 l/m 0 min 2 min 0 W/m 33,8 km/h (5 Bft) 94,44 %
26.12.2017 06:56 7,9 C 6,1 C 5,0 C 86 % 15 lf 998,2 hPa 0,0 l/m 0 min 2 min 0 W/m 24,8 km/h (4 Bft) 93,48 %
26.12.2017 06:58 7,8 C 6,1 C 5,0 C 87 % 15 lf 998,2 hPa 0,0 l/m 0 min 2 min 0 W/m 47,3 km/h (6 Bft) 95,74 %
26.12.2017 07:00 7,7 C 6,1 C 5,0 C 87 % 15 lf 998,5 hPa 0,0 l/m 0 min 2 min 0 W/m 51,8 km/h (7 Bft) 93,62 %
26.12.2017 07:02 7,6 C 6,1 C 5,0 C 88 % 15 lf 998,5 hPa 0,0 l/m 0 min 2 min 0 W/m 65,3 km/h (8 Bft) 100,00 %
26.12.2017 07:04 7,6 C 6,1 C 5,0 C 88 % 15 lf 998,4 hPa 0,2 l/m 0 min 2 min 0 W/m 42,8 km/h (6 Bft) 100,00 %
26.12.2017 07:06 7,5 C 6,1 C 5,0 C 88 % 15 lf 998,5 hPa 0,0 l/m 0 min 2 min 0 W/m 42,8 km/h (6 Bft) 100,00 %
26.12.2017 07:08 7,4 C 5,6 C 4,4 C 88 % 15 lf 998,5 hPa 0,0 l/m 0 min 2 min 0 W/m 58,6 km/h (7 Bft) 95,65 %
26.12.2017 07:10 7,3 C 5,6 C 4,4 C 89 % 15 lf 998,4 hPa 0,2 l/m 0 min 2 min 0 W/m 56,3 km/h (7 Bft) 100,00 %
26.12.2017 07:12 7,2 C 5,6 C 4,4 C 89 % 15 lf 998,5 hPa 0,0 l/m 0 min 2 min 0 W/m 49,6 km/h (6 Bft) 100,00 %
26.12.2017 07:14 7,2 C 5,6 C 4,4 C 89 % 15 lf 998,7 hPa 0,0 l/m 0 min 2 min 0 W/m 40,6 km/h (6 Bft) 97,87 %
26.12.2017 07:16 7,1 C 5,6 C 4,4 C 89 % 15 lf 998,6 hPa 0,0 l/m 0 min 2 min 0 W/m 45,1 km/h (6 Bft) 97,87 %
26.12.2017 07:18 7,1 C 5,6 C 4,4 C 89 % 15 lf 998,6 hPa 0,0 l/m 0 min 2 min 0 W/m 45,1 km/h (6 Bft) 97,87 %
26.12.2017 07:20 7,0 C 5,6 C 4,4 C 89 % 15 lf 998,7 hPa 0,0 l/m 0 min 2 min 0 W/m 36,0 km/h (5 Bft) 97,83 %
26.12.2017 07:22 6,9 C 5,6 C 4,4 C 89 % 15 lf 998,7 hPa 0,0 l/m 0 min 2 min 0 W/m 36,0 km/h (5 Bft) 97,87 %
26.12.2017 07:24 6,9 C 5,6 C 4,4 C 89 % 15 lf 998,6 hPa 0,0 l/m 0 min 2 min 0 W/m 54,1 km/h (7 Bft) 100,00 %
26.12.2017 07:26 6,8 C 5,6 C 4,4 C 89 % 15 lf 998,8 hPa 0,0 l/m 0 min 2 min 0 W/m 38,3 km/h (5 Bft) 100,00 %
26.12.2017 07:28 6,8 C 5,6 C 4,4 C 90 % 15 lf 998,8 hPa 0,2 l/m 0 min 2 min 0 W/m 31,5 km/h (5 Bft) 97,83 %
26.12.2017 07:30 6,8 C 5,6 C 4,4 C 90 % 15 lf 998,7 hPa 0,0 l/m 0 min 2 min 0 W/m 36,0 km/h (5 Bft) 93,62 %
26.12.2017 07:32 6,7 C 5,6 C 4,4 C 90 % 15 lf 998,8 hPa 0,0 l/m 0 min 2 min 0 W/m 24,8 km/h (4 Bft) 100,00 %
26.12.2017 07:34 6,7 C 5,6 C 4,4 C 90 % 15 lf 998,8 hPa 0,2 l/m 0 min 2 min 0 W/m 38,3 km/h (5 Bft) 100,00 %
26.12.2017 07:36 6,6 C 5,0 C 4,4 C 90 % 15 lf 998,8 hPa 0,0 l/m 0 min 2 min 0 W/m 38,3 km/h (5 Bft) 100,00 %
26.12.2017 07:38 6,6 C 5,0 C 4,4 C 91 % 15 lf 998,9 hPa 0,0 l/m 0 min 2 min 0 W/m 33,8 km/h (5 Bft) 100,00 %
26.12.2017 07:40 6,6 C 5,0 C 4,4 C 91 % 15 lf 998,9 hPa 0,2 l/m 0 min 2 min 0 W/m 38,3 km/h (5 Bft) 97,83 %
26.12.2017 07:42 6,5 C 5,0 C 4,4 C 91 % 15 lf 998,8 hPa 0,0 l/m 0 min 2 min 0 W/m 40,6 km/h (6 Bft) 97,87 %
26.12.2017 07:44 6,4 C 5,0 C 4,4 C 91 % 15 lf 999,0 hPa 0,2 l/m 0 min 2 min 0 W/m 38,3 km/h (5 Bft) 95,74 %
26.12.2017 07:46 6,4 C 5,0 C 4,4 C 91 % 15 lf 999,0 hPa 0,0 l/m 0 min 2 min 0 W/m 38,3 km/h (5 Bft) 97,87 %
26.12.2017 07:48 6,3 C 5,0 C 3,9 C 91 % 15 lf 999,1 hPa 0,0 l/m 0 min 2 min 0 W/m 51,8 km/h (7 Bft) 95,74 %
26.12.2017 07:50 6,3 C 5,0 C 3,9 C 91 % 15 lf 999,1 hPa 0,0 l/m 0 min 2 min 0 W/m 51,8 km/h (7 Bft) 97,87 %
26.12.2017 07:52 6,2 C 5,0 C 3,9 C 91 % 15 lf 999,1 hPa 0,0 l/m 0 min 2 min 0 W/m 40,6 km/h (6 Bft) 97,83 %
26.12.2017 07:54 6,2 C 5,0 C 3,9 C 92 % 15 lf 999,1 hPa 0,0 l/m 0 min 2 min 0 W/m 49,6 km/h (6 Bft) 91,49 %
26.12.2017 07:56 6,1 C 5,0 C 3,9 C 92 % 15 lf 999,1 hPa 0,2 l/m 0 min 2 min 0 W/m 47,3 km/h (6 Bft) 95,74 %
26.12.2017 07:58 6,1 C 5,0 C 3,9 C 92 % 15 lf 999,2 hPa 0,0 l/m 0 min 2 min 0 W/m 42,8 km/h (6 Bft) 97,87 %
26.12.2017 08:00 6,1 C 5,0 C 3,9 C 92 % 15 lf 999,1 hPa 0,0 l/m 0 min 2 min 0 W/m 49,6 km/h (6 Bft) 97,87 %
26.12.2017 08:02 6,1 C 5,0 C 3,9 C 92 % 15 lf 999,2 hPa 0,0 l/m 0 min 2 min 0 W/m 47,3 km/h (6 Bft) 97,87 %
26.12.2017 08:04 6,0 C 5,0 C 3,9 C 92 % 15 lf 999,2 hPa 0,0 l/m 0 min 2 min 0 W/m 36,0 km/h (5 Bft) 97,83 %
26.12.2017 08:06 6,0 C 5,0 C 3,9 C 92 % 15 lf 999,2 hPa 0,0 l/m 0 min 2 min 0 W/m 36,0 km/h (5 Bft) 95,74 %
26.12.2017 08:08 5,9 C 5,0 C 3,9 C 92 % 15 lf 999,2 hPa 0,0 l/m 0 min 2 min 0 W/m 38,3 km/h (5 Bft) 95,74 %
26.12.2017 08:10 5,9 C 5,0 C 3,9 C 92 % 15 lf 999,2 hPa 0,2 l/m 0 min 2 min 0 W/m 29,3 km/h (5 Bft) 95,74 %
26.12.2017 08:12 5,9 C 5,0 C 3,9 C 93 % 15 lf 999,2 hPa 0,0 l/m 0 min 2 min 0 W/m 38,3 km/h (5 Bft) 95,74 %
26.12.2017 08:14 5,9 C 5,0 C 3,9 C 93 % 15 lf 999,2 hPa 0,0 l/m 0 min 2 min 0 W/m 47,3 km/h (6 Bft) 97,83 %
26.12.2017 08:16 5,9 C 5,0 C 3,9 C 93 % 15 lf 999,2 hPa 0,0 l/m 0 min 2 min 0 W/m 33,8 km/h (5 Bft) 95,74 %
26.12.2017 08:18 5,8 C 5,0 C 3,9 C 93 % 15 lf 999,3 hPa 0,0 l/m 0 min 2 min 0 W/m 42,8 km/h (6 Bft) 93,62 %
26.12.2017 08:20 5,8 C 5,0 C 3,9 C 93 % 15 lf 999,3 hPa 0,0 l/m 0 min 2 min 0 W/m 40,6 km/h (6 Bft) 95,74 %
26.12.2017 08:22 5,8 C 5,0 C 3,9 C 93 % 15 lf 999,2 hPa 0,0 l/m 0 min 2 min 0 W/m 45,1 km/h (6 Bft) 91,49 %
26.12.2017 08:24 5,8 C 5,0 C 3,9 C 93 % 15 lf 999,3 hPa 0,0 l/m 0 min 2 min 0 W/m 40,6 km/h (6 Bft) 93,62 %
26.12.2017 08:26 5,7 C 5,0 C 3,9 C 93 % 15 lf 999,2 hPa 0,0 l/m 0 min 2 min 0 W/m 27,0 km/h (4 Bft) 97,83 %
26.12.2017 08:28 5,7 C 5,0 C 3,9 C 93 % 15 lf 999,2 hPa 0,0 l/m 0 min 2 min 0 W/m 33,8 km/h (5 Bft) 97,87 %
26.12.2017 08:30 5,7 C 5,0 C 3,9 C 93 % 15 lf 999,2 hPa 0,0 l/m 0 min 2 min 0 W/m 31,5 km/h (5 Bft) 97,87 %
26.12.2017 08:32 5,7 C 5,0 C 3,9 C 93 % 15 lf 999,3 hPa 0,0 l/m 0 min 2 min 0 W/m 29,3 km/h (5 Bft) 97,87 %
26.12.2017 08:34 5,6 C 5,0 C 3,9 C 93 % 15 lf 999,4 hPa 0,0 l/m 0 min 2 min 0 W/m 27,0 km/h (4 Bft) 97,87 %
26.12.2017 08:36 5,6 C 5,0 C 3,9 C 93 % 15 lf 999,4 hPa 0,2 l/m 0 min 2 min 0 W/m 36,0 km/h (5 Bft) 95,74 %
26.12.2017 08:38 5,6 C 5,0 C 3,9 C 93 % 15 lf 999,5 hPa 0,0 l/m 0 min 2 min 0 W/m 40,6 km/h (6 Bft) 93,48 %
26.12.2017 08:40 5,6 C 5,0 C 3,9 C 93 % 15 lf 999,5 hPa 0,0 l/m 0 min 2 min 0 W/m 36,0 km/h (5 Bft) 97,87 %
26.12.2017 08:42 5,6 C 5,0 C 3,9 C 94 % 15 lf 999,5 hPa 0,0 l/m 0 min 2 min 0 W/m 31,5 km/h (5 Bft) 95,74 %
26.12.2017 08:44 5,5 C 5,0 C 3,9 C 94 % 15 lf 999,5 hPa 0,0 l/m 0 min 2 min 0 W/m 36,0 km/h (5 Bft) 97,87 %
26.12.2017 08:46 5,5 C 4,4 C 3,9 C 94 % 15 lf 999,7 hPa 0,0 l/m 0 min 2 min 0 W/m 27,0 km/h (4 Bft) 95,74 %
26.12.2017 08:48 5,5 C 4,4 C 3,9 C 94 % 15 lf 999,7 hPa 0,0 l/m 0 min 2 min 0 W/m 38,3 km/h (5 Bft) 100,00 %
26.12.2017 08:50 5,5 C 4,4 C 3,9 C 94 % 15 lf 999,8 hPa 0,0 l/m 0 min 2 min 0 W/m 40,6 km/h (6 Bft) 100,00 %
26.12.2017 08:52 5,4 C 4,4 C 3,9 C 94 % 15 lf 999,8 hPa 0,0 l/m 0 min 2 min 0 W/m 31,5 km/h (5 Bft) 100,00 %
26.12.2017 08:54 5,4 C 4,4 C 3,9 C 94 % 15 lf 999,8 hPa 0,0 l/m 0 min 2 min 0 W/m 29,3 km/h (5 Bft) 97,87 %
26.12.2017 08:56 5,4 C 4,4 C 3,9 C 94 % 15 lf 999,7 hPa 0,2 l/m 0 min 2 min 0 W/m 24,8 km/h (4 Bft) 100,00 %
26.12.2017 08:58 5,4 C 4,4 C 3,9 C 94 % 15 lf 999,8 hPa 0,0 l/m 0 min 2 min 0 W/m 27,0 km/h (4 Bft) 100,00 %
26.12.2017 09:00 5,4 C 4,4 C 3,9 C 94 % 15 lf 999,9 hPa 0,0 l/m 0 min 2 min 0 W/m 31,5 km/h (5 Bft) 100,00 %
26.12.2017 09:02 5,4 C 4,4 C 3,9 C 94 % 15 lf 999,8 hPa 0,0 l/m 0 min 2 min 0 W/m 29,3 km/h (5 Bft) 97,83 %
26.12.2017 09:04 5,4 C 4,4 C 3,9 C 94 % 15 lf 999,9 hPa 0,0 l/m 0 min 2 min 0 W/m 29,3 km/h (5 Bft) 100,00 %
26.12.2017 09:06 5,4 C 4,4 C 3,9 C 94 % 15 lf 999,9 hPa 0,0 l/m 0 min 2 min 0 W/m 20,3 km/h (4 Bft) 97,87 %
26.12.2017 09:08 5,3 C 4,4 C 3,9 C 94 % 15 lf 1000,0 hPa 0,0 l/m 0 min 2 min 5 W/m 24,8 km/h (4 Bft) 97,87 %
26.12.2017 09:10 5,4 C 4,4 C 3,9 C 94 % 15 lf 999,9 hPa 0,0 l/m 0 min 2 min 5 W/m 18,0 km/h (3 Bft) 93,62 %
26.12.2017 09:12 5,3 C 4,4 C 3,9 C 94 % 15 lf 999,8 hPa 0,2 l/m 0 min 2 min 5 W/m 31,5 km/h (5 Bft) 97,83 %
26.12.2017 09:14 5,3 C 4,4 C 3,9 C 94 % 15 lf 999,9 hPa 0,0 l/m 0 min 2 min 5 W/m 24,8 km/h (4 Bft) 97,87 %
26.12.2017 09:16 5,3 C 4,4 C 3,9 C 94 % 15 lf 999,9 hPa 0,0 l/m 0 min 2 min 6 W/m 24,8 km/h (4 Bft) 95,74 %
26.12.2017 09:18 5,3 C 4,4 C 3,3 C 94 % 15 lf 999,9 hPa 0,0 l/m 0 min 2 min 7 W/m 27,0 km/h (4 Bft) 93,62 %
26.12.2017 09:20 5,3 C 4,4 C 3,3 C 95 % 15 lf 999,9 hPa 0,0 l/m 0 min 2 min 7 W/m 24,8 km/h (4 Bft) 95,74 %
26.12.2017 09:22 5,3 C 4,4 C 3,3 C 95 % 15 lf 999,9 hPa 0,0 l/m 0 min 2 min 7 W/m 24,8 km/h (4 Bft) 95,74 %
26.12.2017 09:24 5,2 C 4,4 C 3,3 C 95 % 15 lf 999,9 hPa 0,0 l/m 0 min 2 min 9 W/m 31,5 km/h (5 Bft) 97,87 %
26.12.2017 09:26 5,2 C 4,4 C 3,3 C 95 % 15 lf 999,9 hPa 0,0 l/m 0 min 2 min 9 W/m 31,5 km/h (5 Bft) 95,65 %
26.12.2017 09:28 5,2 C 4,4 C 3,3 C 94 % 15 lf 999,9 hPa 0,0 l/m 0 min 2 min 11 W/m 31,5 km/h (5 Bft) 97,87 %
26.12.2017 09:30 5,2 C 4,4 C 3,3 C 94 % 15 lf 1000,0 hPa 0,0 l/m 0 min 2 min 11 W/m 31,5 km/h (5 Bft) 93,62 %
26.12.2017 09:32 5,2 C 4,4 C 3,3 C 94 % 15 lf 999,9 hPa 0,0 l/m 0 min 2 min 11 W/m 29,3 km/h (5 Bft) 97,87 %
26.12.2017 09:34 5,2 C 4,4 C 3,3 C 94 % 15 lf 999,9 hPa 0,0 l/m 0 min 2 min 11 W/m 31,5 km/h (5 Bft) 95,74 %
26.12.2017 09:36 5,1 C 4,4 C 3,3 C 94 % 15 lf 1000,0 hPa 0,0 l/m 0 min 2 min 12 W/m 33,8 km/h (5 Bft) 97,83 %
26.12.2017 09:38 5,1 C 4,4 C 3,3 C 94 % 15 lf 999,9 hPa 0,0 l/m 0 min 2 min 12 W/m 29,3 km/h (5 Bft) 97,87 %
26.12.2017 09:40 5,1 C 4,4 C 3,3 C 95 % 15 lf 999,9 hPa 0,0 l/m 0 min 2 min 12 W/m 18,0 km/h (3 Bft) 97,87 %
26.12.2017 09:42 5,1 C 4,4 C 3,3 C 95 % 15 lf 999,9 hPa 0,0 l/m 0 min 2 min 12 W/m 31,5 km/h (5 Bft) 97,87 %
26.12.2017 09:44 5,1 C 4,4 C 3,3 C 95 % 15 lf 999,9 hPa 0,2 l/m 0 min 2 min 14 W/m 31,5 km/h (5 Bft) 97,87 %
26.12.2017 09:46 5,1 C 4,4 C 3,3 C 95 % 15 lf 999,9 hPa 0,0 l/m 0 min 2 min 18 W/m 20,3 km/h (4 Bft) 91,49 %
26.12.2017 09:48 5,1 C 4,4 C 3,3 C 95 % 15 lf 1000,0 hPa 0,0 l/m 0 min 2 min 18 W/m 38,3 km/h (5 Bft) 95,65 %
26.12.2017 09:50 5,1 C 4,4 C 3,3 C 95 % 15 lf 1000,0 hPa 0,0 l/m 0 min 2 min 16 W/m 20,3 km/h (4 Bft) 95,74 %
26.12.2017 09:52 5,1 C 4,4 C 3,3 C 95 % 15 lf 1000,0 hPa 0,0 l/m 0 min 2 min 16 W/m 36,0 km/h (5 Bft) 95,74 %
26.12.2017 09:54 5,0 C 4,4 C 3,3 C 95 % 15 lf 999,9 hPa 0,0 l/m 0 min 2 min 18 W/m 29,3 km/h (5 Bft) 97,87 %
26.12.2017 09:56 5,0 C 4,4 C 3,3 C 95 % 15 lf 999,9 hPa 0,0 l/m 0 min 2 min 18 W/m 27,0 km/h (4 Bft) 95,74 %
26.12.2017 09:58 5,0 C 4,4 C 3,3 C 95 % 15 lf 999,9 hPa 0,0 l/m 0 min 2 min 18 W/m 27,0 km/h (4 Bft) 95,74 %
26.12.2017 10:00 5,0 C 4,4 C 3,3 C 94 % 15 lf 999,9 hPa 0,0 l/m 0 min 2 min 19 W/m 24,8 km/h (4 Bft) 95,65 %
26.12.2017 10:02 5,0 C 4,4 C 3,3 C 94 % 15 lf 999,9 hPa 0,0 l/m 0 min 2 min 19 W/m 33,8 km/h (5 Bft) 95,74 %
26.12.2017 10:04 5,0 C 4,4 C 3,3 C 94 % 15 lf 999,9 hPa 0,0 l/m 0 min 2 min 18 W/m 20,3 km/h (4 Bft) 93,62 %
26.12.2017 10:06 5,0 C 4,4 C 3,3 C 94 % 15 lf 999,8 hPa 0,0 l/m 0 min 2 min 18 W/m 24,8 km/h (4 Bft) 95,74 %
26.12.2017 10:08 5,0 C 4,4 C 3,3 C 94 % 15 lf 999,8 hPa 0,0 l/m 0 min 0 min 18 W/m 24,8 km/h (4 Bft) 97,87 %
26.12.2017 10:10 5,0 C 4,4 C 3,3 C 94 % 15 lf 999,9 hPa 0,0 l/m 0 min 0 min 22 W/m 36,0 km/h (5 Bft) 97,87 %
26.12.2017 10:12 5,0 C 4,4 C 3,3 C 94 % 15 lf 1000,0 hPa 0,0 l/m 0 min 2 min 26 W/m 29,3 km/h (5 Bft) 95,65 %
26.12.2017 10:14 5,0 C 4,4 C 3,3 C 94 % 15 lf 1000,0 hPa 0,0 l/m 0 min 0 min 26 W/m 24,8 km/h (4 Bft) 95,74 %
26.12.2017 10:16 5,0 C 4,4 C 3,3 C 94 % 15 lf 1000,1 hPa 0,0 l/m 0 min 0 min 26 W/m 31,5 km/h (5 Bft) 91,49 %
26.12.2017 10:18 5,0 C 4,4 C 3,3 C 94 % 15 lf 1000,1 hPa 0,0 l/m 0 min 0 min 26 W/m 27,0 km/h (4 Bft) 95,74 %
26.12.2017 10:20 5,0 C 4,4 C 3,3 C 94 % 15 lf 1000,1 hPa 0,0 l/m 0 min 0 min 26 W/m 24,8 km/h (4 Bft) 93,62 %
26.12.2017 10:22 5,0 C 4,4 C 3,3 C 94 % 15 lf 1000,1 hPa 0,0 l/m 0 min 2 min 25 W/m 31,5 km/h (5 Bft) 86,96 %
26.12.2017 10:24 5,0 C 4,4 C 3,3 C 94 % 15 lf 1000,1 hPa 0,0 l/m 0 min 0 min 27 W/m 22,5 km/h (4 Bft) 91,49 %
26.12.2017 10:26 5,0 C 4,4 C 3,3 C 94 % 15 lf 1000,1 hPa 0,0 l/m 0 min 0 min 34 W/m 33,8 km/h (5 Bft) 89,36 %
26.12.2017 10:28 5,1 C 4,4 C 3,3 C 94 % 15 lf 1000,1 hPa 0,0 l/m 0 min 0 min 37 W/m 24,8 km/h (4 Bft) 93,62 %
26.12.2017 10:30 5,1 C 4,4 C 3,3 C 94 % 15 lf 1000,1 hPa 0,0 l/m 0 min 0 min 40 W/m 29,3 km/h (5 Bft) 91,49 %
26.12.2017 10:32 5,1 C 4,4 C 3,3 C 94 % 15 lf 1000,1 hPa 0,0 l/m 0 min 0 min 41 W/m 22,5 km/h (4 Bft) 93,62 %
26.12.2017 10:34 5,1 C 4,4 C 3,3 C 94 % 15 lf 1000,2 hPa 0,0 l/m 0 min 0 min 36 W/m 20,3 km/h (4 Bft) 93,62 %
26.12.2017 10:36 5,1 C 4,4 C 3,3 C 94 % 15 lf 1000,1 hPa 0,0 l/m 0 min 0 min 35 W/m 29,3 km/h (5 Bft) 93,48 %
26.12.2017 10:38 5,1 C 4,4 C 3,3 C 94 % 15 lf 1000,2 hPa 0,0 l/m 0 min 0 min 42 W/m 20,3 km/h (4 Bft) 89,36 %
26.12.2017 10:40 5,1 C 4,4 C 3,3 C 94 % 15 lf 1000,2 hPa 0,0 l/m 0 min 0 min 50 W/m 22,5 km/h (4 Bft) 91,49 %
26.12.2017 10:42 5,1 C 4,4 C 3,9 C 94 % 15 lf 1000,2 hPa 0,0 l/m 0 min 0 min 57 W/m 29,3 km/h (5 Bft) 95,74 %
26.12.2017 10:44 5,1 C 4,4 C 3,9 C 94 % 15 lf 1000,3 hPa 0,0 l/m 0 min 0 min 58 W/m 24,8 km/h (4 Bft) 93,62 %
26.12.2017 10:46 5,1 C 4,4 C 3,9 C 93 % 14 lf 1000,3 hPa 0,0 l/m 0 min 0 min 55 W/m 22,5 km/h (4 Bft) 93,48 %
26.12.2017 10:48 5,1 C 4,4 C 3,9 C 93 % 15 lf 1000,3 hPa 0,0 l/m 0 min 0 min 54 W/m 24,8 km/h (4 Bft) 95,74 %
26.12.2017 10:50 5,1 C 5,0 C 3,9 C 93 % 14 lf 1000,4 hPa 0,0 l/m 0 min 0 min 54 W/m 33,8 km/h (5 Bft) 95,74 %
26.12.2017 10:52 5,2 C 5,0 C 3,9 C 93 % 14 lf 1000,4 hPa 0,0 l/m 0 min 0 min 54 W/m 24,8 km/h (4 Bft) 95,74 %
26.12.2017 10:54 5,2 C 5,0 C 3,9 C 93 % 13 lf 1000,5 hPa 0,0 l/m 0 min 0 min 54 W/m 31,5 km/h (5 Bft) 97,87 %
26.12.2017 10:56 5,2 C 5,0 C 3,9 C 93 % 13 lf 1000,4 hPa 0,0 l/m 0 min 0 min 59 W/m 29,3 km/h (5 Bft) 95,74 %
26.12.2017 10:58 5,2 C 5,0 C 3,9 C 93 % 13 lf 1000,4 hPa 0,0 l/m 0 min 0 min 66 W/m 36,0 km/h (5 Bft) 97,87 %
26.12.2017 11:00 5,2 C 5,0 C 3,9 C 93 % 12 lf 1000,4 hPa 0,0 l/m 0 min 0 min 72 W/m 31,5 km/h (5 Bft) 97,83 %
26.12.2017 11:02 5,2 C 5,0 C 3,9 C 93 % 12 lf 1000,5 hPa 0,0 l/m 0 min 0 min 77 W/m 24,8 km/h (4 Bft) 95,74 %
26.12.2017 11:04 5,2 C 5,0 C 3,9 C 93 % 10 lf 1000,4 hPa 0,0 l/m 0 min 0 min 77 W/m 29,3 km/h (5 Bft) 95,74 %
26.12.2017 11:06 5,3 C 5,0 C 3,9 C 93 % 9 lf 1000,4 hPa 0,0 l/m 0 min 0 min 71 W/m 36,0 km/h (5 Bft) 97,87 %
26.12.2017 11:08 5,3 C 5,0 C 3,9 C 93 % 7 lf 1000,4 hPa 0,0 l/m 0 min 0 min 69 W/m 29,3 km/h (5 Bft) 100,00 %
26.12.2017 11:10 5,3 C 5,0 C 3,9 C 92 % 6 lf 1000,5 hPa 0,0 l/m 0 min 0 min 67 W/m 27,0 km/h (4 Bft) 97,83 %
26.12.2017 11:12 5,3 C 5,0 C 3,9 C 92 % 4 lf 1000,5 hPa 0,0 l/m 0 min 0 min 67 W/m 33,8 km/h (5 Bft) 93,62 %
26.12.2017 11:14 5,3 C 5,0 C 3,9 C 92 % 4 lf 1000,5 hPa 0,0 l/m 0 min 0 min 69 W/m 22,5 km/h (4 Bft) 100,00 %
26.12.2017 11:16 5,4 C 5,0 C 3,9 C 92 % 4 lf 1000,5 hPa 0,0 l/m 0 min 0 min 72 W/m 27,0 km/h (4 Bft) 100,00 %
26.12.2017 11:18 5,4 C 5,0 C 3,9 C 92 % 3 lf 1000,5 hPa 0,0 l/m 0 min 0 min 77 W/m 24,8 km/h (4 Bft) 97,87 %
26.12.2017 11:20 5,4 C 5,0 C 3,9 C 92 % 3 lf 1000,4 hPa 0,0 l/m 0 min 0 min 82 W/m 29,3 km/h (5 Bft) 100,00 %
26.12.2017 11:22 5,4 C 5,6 C 3,9 C 92 % 3 lf 1000,5 hPa 0,0 l/m 0 min 0 min 87 W/m 20,3 km/h (4 Bft) 100,00 %
26.12.2017 11:24 5,4 C 5,6 C 3,9 C 92 % 2 lf 1000,5 hPa 0,0 l/m 0 min 0 min 93 W/m 22,5 km/h (4 Bft) 100,00 %
26.12.2017 11:26 5,4 C 5,6 C 3,9 C 92 % 2 lf 1000,6 hPa 0,0 l/m 0 min 0 min 101 W/m 24,8 km/h (4 Bft) 97,87 %
26.12.2017 11:28 5,5 C 5,6 C 4,4 C 92 % 1 lf 1000,6 hPa 0,0 l/m 0 min 0 min 110 W/m 42,8 km/h (6 Bft) 100,00 %
26.12.2017 11:30 5,5 C 5,6 C 3,9 C 92 % 1 lf 1000,6 hPa 0,0 l/m 0 min 0 min 114 W/m 27,0 km/h (4 Bft) 100,00 %
26.12.2017 11:32 5,6 C 5,6 C 3,9 C 92 % 1 lf 1000,6 hPa 0,0 l/m 0 min 0 min 105 W/m 24,8 km/h (4 Bft) 97,83 %
26.12.2017 11:34 5,6 C 5,6 C 3,9 C 92 % 0 lf 1000,6 hPa 0,0 l/m 0 min 0 min 107 W/m 33,8 km/h (5 Bft) 100,00 %
26.12.2017 11:36 5,6 C 5,6 C 3,9 C 92 % 0 lf 1000,5 hPa 0,0 l/m 0 min 0 min 92 W/m 36,0 km/h (5 Bft) 100,00 %
26.12.2017 11:38 5,6 C 5,6 C 3,9 C 92 % 0 lf 1000,5 hPa 0,0 l/m 0 min 0 min 67 W/m 29,3 km/h (5 Bft) 95,74 %
26.12.2017 11:40 5,6 C 5,6 C 3,9 C 92 % 0 lf 1000,4 hPa 0,0 l/m 0 min 0 min 60 W/m 29,3 km/h (5 Bft) 93,62 %
26.12.2017 11:42 5,6 C 7,8 C 3,9 C 92 % 0 lf 1000,5 hPa 0,0 l/m 0 min 0 min 135 W/m 38,3 km/h (5 Bft) 97,87 %
26.12.2017 11:44 5,7 C 8,3 C 3,9 C 92 % 0 lf 1000,5 hPa 0,0 l/m 2 min 0 min 210 W/m 31,5 km/h (5 Bft) 100,00 %
26.12.2017 11:46 5,7 C 8,9 C 3,9 C 92 % 0 lf 1000,4 hPa 0,0 l/m 2 min 0 min 207 W/m 36,0 km/h (5 Bft) 93,62 %
26.12.2017 11:48 5,8 C 10,0 C 3,9 C 92 % 0 lf 1000,4 hPa 0,0 l/m 2 min 0 min 211 W/m 27,0 km/h (4 Bft) 100,00 %
26.12.2017 11:50 5,8 C 10,0 C 3,9 C 92 % 0 lf 1000,4 hPa 0,0 l/m 2 min 0 min 214 W/m 20,3 km/h (4 Bft) 97,87 %
26.12.2017 11:52 5,9 C 10,0 C 3,9 C 92 % 0 lf 1000,4 hPa 0,0 l/m 2 min 0 min 215 W/m 33,8 km/h (5 Bft) 100,00 %
26.12.2017 11:54 6,0 C 10,6 C 3,9 C 92 % 0 lf 1000,3 hPa 0,0 l/m 2 min 0 min 211 W/m 22,5 km/h (4 Bft) 100,00 %
26.12.2017 11:56 6,1 C 10,0 C 3,9 C 92 % 0 lf 1000,3 hPa 0,0 l/m 2 min 0 min 216 W/m 29,3 km/h (5 Bft) 97,83 %
26.12.2017 11:58 6,1 C 10,0 C 3,9 C 92 % 0 lf 1000,4 hPa 0,0 l/m 2 min 0 min 217 W/m 24,8 km/h (4 Bft) 95,74 %
26.12.2017 12:00 6,2 C 9,4 C 4,4 C 92 % 0 lf 1000,6 hPa 0,0 l/m 2 min 0 min 222 W/m 33,8 km/h (5 Bft) 95,74 %
26.12.2017 12:02 6,2 C 8,9 C 4,4 C 91 % 0 lf 1000,5 hPa 0,0 l/m 2 min 0 min 234 W/m 38,3 km/h (5 Bft) 97,87 %
26.12.2017 12:04 6,3 C 8,3 C 4,4 C 91 % 0 lf 1000,6 hPa 0,0 l/m 2 min 0 min 258 W/m 47,3 km/h (6 Bft) 95,74 %
26.12.2017 12:06 6,3 C 7,8 C 4,4 C 91 % 0 lf 1000,6 hPa 0,0 l/m 0 min 0 min 137 W/m 38,3 km/h (5 Bft) 97,87 %
26.12.2017 12:10 6,3 C 6,7 C 4,4 C 91 % 0 lf 1000,5 hPa 0,0 l/m 0 min 0 min 79 W/m 47,3 km/h (6 Bft) 92,63 %
26.12.2017 12:12 6,3 C 6,1 C 4,4 C 90 % 0 lf 1000,5 hPa 0,0 l/m 0 min 0 min 67 W/m 33,8 km/h (5 Bft) 93,62 %
26.12.2017 12:14 6,3 C 6,7 C 3,9 C 90 % 0 lf 1000,4 hPa 0,0 l/m 0 min 0 min 60 W/m 38,3 km/h (5 Bft) 95,74 %
26.12.2017 12:16 6,3 C 7,8 C 3,9 C 90 % 0 lf 1000,4 hPa 0,0 l/m 0 min 0 min 62 W/m 33,8 km/h (5 Bft) 95,74 %
26.12.2017 12:18 6,3 C 8,9 C 4,4 C 90 % 0 lf 1000,4 hPa 0,0 l/m 0 min 0 min 146 W/m 27,0 km/h (4 Bft) 95,65 %
26.12.2017 12:20 6,3 C 8,3 C 4,4 C 90 % 0 lf 1000,6 hPa 0,0 l/m 0 min 0 min 146 W/m 36,0 km/h (5 Bft) 95,74 %
26.12.2017 12:22 6,3 C 7,8 C 4,4 C 90 % 0 lf 1000,7 hPa 0,0 l/m 0 min 0 min 100 W/m 42,8 km/h (6 Bft) 91,49 %
26.12.2017 12:24 6,3 C 8,3 C 4,4 C 90 % 0 lf 1000,5 hPa 0,0 l/m 0 min 0 min 87 W/m 42,8 km/h (6 Bft) 91,49 %
26.12.2017 12:26 6,3 C 10,0 C 4,4 C 90 % 0 lf 1000,5 hPa 0,0 l/m 2 min 0 min 224 W/m 38,3 km/h (5 Bft) 91,49 %
26.12.2017 12:28 6,4 C 11,1 C 4,4 C 90 % 0 lf 1000,7 hPa 0,0 l/m 2 min 0 min 235 W/m 31,5 km/h (5 Bft) 95,74 %
26.12.2017 12:30 6,4 C 12,2 C 4,4 C 90 % 0 lf 1000,6 hPa 0,0 l/m 2 min 0 min 252 W/m 24,8 km/h (4 Bft) 93,48 %
26.12.2017 12:32 6,5 C 12,2 C 4,4 C 90 % 0 lf 1000,7 hPa 0,0 l/m 2 min 0 min 221 W/m 27,0 km/h (4 Bft) 95,74 %
26.12.2017 12:34 6,6 C 12,2 C 5,0 C 90 % 0 lf 1000,7 hPa 0,0 l/m 2 min 0 min 265 W/m 27,0 km/h (4 Bft) 95,74 %
26.12.2017 12:36 6,6 C 9,4 C 4,4 C 90 % 0 lf 1000,7 hPa 0,0 l/m 2 min 0 min 181 W/m 36,0 km/h (5 Bft) 93,62 %
26.12.2017 12:38 6,6 C 8,9 C 4,4 C 89 % 0 lf 1000,7 hPa 0,0 l/m 0 min 0 min 84 W/m 29,3 km/h (5 Bft) 93,62 %
26.12.2017 12:40 6,6 C 8,3 C 4,4 C 89 % 0 lf 1000,6 hPa 0,0 l/m 0 min 0 min 105 W/m 33,8 km/h (5 Bft) 95,74 %
26.12.2017 12:42 6,6 C 7,8 C 4,4 C 89 % 0 lf 1000,6 hPa 0,0 l/m 0 min 0 min 88 W/m 33,8 km/h (5 Bft) 100,00 %
26.12.2017 12:44 6,5 C 7,8 C 4,4 C 88 % 0 lf 1000,6 hPa 0,0 l/m 0 min 0 min 72 W/m 31,5 km/h (5 Bft) 97,87 %
26.12.2017 12:46 6,5 C 7,8 C 4,4 C 88 % 0 lf 1000,6 hPa 0,0 l/m 0 min 0 min 87 W/m 38,3 km/h (5 Bft) 97,87 %
26.12.2017 12:48 6,5 C 7,2 C 4,4 C 88 % 0 lf 1000,6 hPa 0,0 l/m 0 min 0 min 82 W/m 36,0 km/h (5 Bft) 95,74 %
26.12.2017 12:50 6,5 C 7,2 C 3,9 C 88 % 0 lf 1000,7 hPa 0,0 l/m 0 min 0 min 56 W/m 31,5 km/h (5 Bft) 97,87 %
26.12.2017 12:52 6,4 C 6,7 C 3,9 C 88 % 0 lf 1000,6 hPa 0,0 l/m 0 min 0 min 45 W/m 38,3 km/h (5 Bft) 97,87 %
26.12.2017 12:54 6,4 C 6,7 C 3,9 C 88 % 0 lf 1000,6 hPa 0,0 l/m 0 min 0 min 45 W/m 38,3 km/h (5 Bft) 89,13 %
26.12.2017 12:56 6,4 C 6,7 C 3,9 C 88 % 0 lf 1000,6 hPa 0,0 l/m 0 min 0 min 41 W/m 20,3 km/h (4 Bft) 100,00 %
26.12.2017 12:58 6,4 C 6,1 C 3,9 C 88 % 0 lf 1000,4 hPa 0,0 l/m 0 min 0 min 39 W/m 33,8 km/h (5 Bft) 95,74 %
26.12.2017 13:00 6,4 C 6,7 C 3,9 C 88 % 0 lf 1000,6 hPa 0,0 l/m 0 min 0 min 40 W/m 31,5 km/h (5 Bft) 97,87 %
26.12.2017 13:02 6,4 C 6,7 C 3,9 C 88 % 0 lf 1000,5 hPa 0,0 l/m 0 min 0 min 58 W/m 33,8 km/h (5 Bft) 97,87 %
26.12.2017 13:04 6,4 C 6,7 C 3,9 C 88 % 0 lf 1000,6 hPa 0,0 l/m 0 min 0 min 79 W/m 45,1 km/h (6 Bft) 97,87 %
26.12.2017 13:06 6,4 C 6,7 C 3,9 C 88 % 0 lf 1000,5 hPa 0,0 l/m 0 min 0 min 57 W/m 27,0 km/h (4 Bft) 95,65 %
26.12.2017 13:08 6,4 C 6,7 C 3,9 C 88 % 0 lf 1000,6 hPa 0,0 l/m 0 min 0 min 46 W/m 24,8 km/h (4 Bft) 95,74 %
26.12.2017 13:10 6,4 C 6,7 C 3,9 C 88 % 0 lf 1000,6 hPa 0,0 l/m 0 min 0 min 50 W/m 24,8 km/h (4 Bft) 97,87 %
26.12.2017 13:12 6,4 C 6,7 C 3,9 C 88 % 0 lf 1000,6 hPa 0,0 l/m 0 min 0 min 69 W/m 29,3 km/h (5 Bft) 97,87 %
26.12.2017 13:14 6,4 C 6,7 C 4,4 C 88 % 0 lf 1000,6 hPa 0,0 l/m 0 min 0 min 78 W/m 36,0 km/h (5 Bft) 97,87 %
26.12.2017 13:16 6,4 C 7,8 C 4,4 C 88 % 0 lf 1000,6 hPa 0,0 l/m 0 min 0 min 133 W/m 36,0 km/h (5 Bft) 93,62 %
26.12.2017 13:18 6,4 C 8,9 C 5,0 C 88 % 0 lf 1000,7 hPa 0,0 l/m 2 min 0 min 196 W/m 36,0 km/h (5 Bft) 95,65 %
26.12.2017 13:20 6,5 C 10,0 C 5,0 C 88 % 0 lf 1000,7 hPa 0,0 l/m 2 min 0 min 165 W/m 27,0 km/h (4 Bft) 97,87 %
26.12.2017 13:22 6,6 C 9,4 C 5,0 C 88 % 0 lf 1000,6 hPa 0,0 l/m 2 min 0 min 225 W/m 40,6 km/h (6 Bft) 91,49 %
26.12.2017 13:24 6,7 C 8,9 C 5,0 C 88 % 0 lf 1000,6 hPa 0,0 l/m 2 min 0 min 182 W/m 36,0 km/h (5 Bft) 95,74 %
26.12.2017 13:26 6,7 C 8,3 C 5,0 C 88 % 0 lf 1000,7 hPa 0,0 l/m 0 min 0 min 130 W/m 38,3 km/h (5 Bft) 97,87 %
26.12.2017 13:28 6,8 C 8,3 C 5,0 C 87 % 0 lf 1000,5 hPa 0,0 l/m 2 min 0 min 146 W/m 40,6 km/h (6 Bft) 95,65 %
26.12.2017 13:30 6,8 C 8,3 C 5,0 C 87 % 0 lf 1000,5 hPa 0,0 l/m 0 min 0 min 123 W/m 42,8 km/h (6 Bft) 95,74 %
26.12.2017 13:32 6,8 C 8,3 C 4,4 C 87 % 0 lf 1000,5 hPa 0,0 l/m 0 min 0 min 107 W/m 33,8 km/h (5 Bft) 89,36 %
26.12.2017 13:34 6,9 C 8,3 C 4,4 C 86 % 0 lf 1000,5 hPa 0,0 l/m 0 min 0 min 122 W/m 33,8 km/h (5 Bft) 97,87 %
26.12.2017 13:36 6,9 C 7,8 C 4,4 C 86 % 0 lf 1000,5 hPa 0,0 l/m 0 min 0 min 92 W/m 40,6 km/h (6 Bft) 91,49 %
26.12.2017 13:38 6,9 C 7,8 C 5,0 C 86 % 0 lf 1000,6 hPa 0,0 l/m 0 min 0 min 113 W/m 29,3 km/h (5 Bft) 97,87 %
26.12.2017 13:40 6,9 C 7,8 C 5,0 C 86 % 0 lf 1000,5 hPa 0,0 l/m 0 min 0 min 110 W/m 33,8 km/h (5 Bft) 95,65 %
26.12.2017 13:42 6,9 C 7,8 C 5,0 C 86 % 0 lf 1000,5 hPa 0,0 l/m 0 min 0 min 107 W/m 38,3 km/h (5 Bft) 93,62 %
26.12.2017 13:44 6,9 C 7,8 C 5,0 C 86 % 0 lf 1000,6 hPa 0,0 l/m 0 min 0 min 84 W/m 45,1 km/h (6 Bft) 91,49 %
26.12.2017 13:46 6,9 C 7,8 C 5,0 C 85 % 0 lf 1000,7 hPa 0,0 l/m 0 min 0 min 99 W/m 45,1 km/h (6 Bft) 95,74 %
26.12.2017 13:48 6,9 C 7,8 C 5,0 C 85 % 0 lf 1000,6 hPa 0,0 l/m 0 min 0 min 92 W/m 40,6 km/h (6 Bft) 93,62 %
26.12.2017 13:50 6,9 C 7,8 C 4,4 C 85 % 0 lf 1000,7 hPa 0,0 l/m 0 min 0 min 87 W/m 33,8 km/h (5 Bft) 95,74 %
26.12.2017 13:52 6,9 C 7,8 C 4,4 C 85 % 0 lf 1000,6 hPa 0,0 l/m 0 min 0 min 91 W/m 36,0 km/h (5 Bft) 95,65 %
26.12.2017 13:54 6,9 C 8,9 C 5,0 C 84 % 0 lf 1000,6 hPa 0,0 l/m 2 min 0 min 179 W/m 38,3 km/h (5 Bft) 97,87 %
26.12.2017 13:56 6,9 C 8,9 C 5,0 C 84 % 0 lf 1000,6 hPa 0,0 l/m 2 min 0 min 177 W/m 29,3 km/h (5 Bft) 95,74 %
26.12.2017 13:58 6,9 C 8,3 C 5,0 C 84 % 0 lf 1000,6 hPa 0,0 l/m 0 min 0 min 126 W/m 42,8 km/h (6 Bft) 97,87 %
26.12.2017 14:00 6,9 C 7,8 C 5,0 C 84 % 0 lf 1000,7 hPa 0,0 l/m 0 min 0 min 109 W/m 33,8 km/h (5 Bft) 95,74 %
26.12.2017 14:02 6,9 C 7,8 C 5,6 C 84 % 0 lf 1000,6 hPa 0,0 l/m 0 min 0 min 112 W/m 36,0 km/h (5 Bft) 97,87 %
26.12.2017 14:04 7,0 C 7,8 C 5,6 C 84 % 0 lf 1000,5 hPa 0,0 l/m 0 min 0 min 111 W/m 40,6 km/h (6 Bft) 95,65 %
26.12.2017 14:06 6,9 C 7,2 C 5,6 C 84 % 0 lf 1000,6 hPa 0,0 l/m 0 min 0 min 103 W/m 24,8 km/h (4 Bft) 95,74 %
26.12.2017 14:08 6,9 C 7,2 C 5,6 C 84 % 0 lf 1000,6 hPa 0,0 l/m 0 min 0 min 98 W/m 36,0 km/h (5 Bft) 97,87 %
26.12.2017 14:10 6,9 C 7,2 C 5,6 C 84 % 0 lf 1000,6 hPa 0,0 l/m 0 min 0 min 102 W/m 31,5 km/h (5 Bft) 95,74 %
26.12.2017 14:12 6,9 C 7,2 C 5,6 C 84 % 0 lf 1000,6 hPa 0,0 l/m 0 min 0 min 93 W/m 22,5 km/h (4 Bft) 93,62 %
26.12.2017 14:14 6,9 C 7,2 C 5,6 C 84 % 0 lf 1000,6 hPa 0,0 l/m 0 min 0 min 77 W/m 29,3 km/h (5 Bft) 97,87 %
26.12.2017 14:16 6,9 C 7,2 C 5,6 C 84 % 0 lf 1000,5 hPa 0,0 l/m 0 min 0 min 86 W/m 36,0 km/h (5 Bft) 93,48 %
26.12.2017 14:18 6,9 C 7,2 C 5,6 C 84 % 0 lf 1000,6 hPa 0,0 l/m 0 min 0 min 92 W/m 31,5 km/h (5 Bft) 93,62 %
26.12.2017 14:20 6,9 C 7,8 C 6,1 C 84 % 0 lf 1000,5 hPa 0,0 l/m 0 min 0 min 89 W/m 27,0 km/h (4 Bft) 97,87 %
26.12.2017 14:22 6,9 C 7,8 C 5,6 C 84 % 0 lf 1000,4 hPa 0,0 l/m 0 min 0 min 88 W/m 24,8 km/h (4 Bft) 97,87 %
26.12.2017 14:24 6,9 C 7,8 C 6,1 C 84 % 0 lf 1000,4 hPa 0,0 l/m 0 min 0 min 98 W/m 20,3 km/h (4 Bft) 95,74 %
26.12.2017 14:26 6,9 C 7,8 C 6,1 C 84 % 0 lf 1000,6 hPa 0,0 l/m 0 min 0 min 112 W/m 31,5 km/h (5 Bft) 93,62 %
26.12.2017 14:28 6,9 C 7,8 C 6,1 C 84 % 0 lf 1000,4 hPa 0,0 l/m 2 min 0 min 119 W/m 33,8 km/h (5 Bft) 97,83 %
26.12.2017 14:30 6,9 C 7,8 C 6,1 C 84 % 0 lf 1000,5 hPa 0,0 l/m 2 min 0 min 110 W/m 31,5 km/h (5 Bft) 95,74 %
26.12.2017 14:32 6,9 C 7,2 C 6,1 C 84 % 0 lf 1000,4 hPa 0,0 l/m 0 min 0 min 87 W/m 36,0 km/h (5 Bft) 97,87 %
26.12.2017 14:34 6,9 C 7,2 C 5,6 C 83 % 0 lf 1000,4 hPa 0,0 l/m 0 min 0 min 72 W/m 33,8 km/h (5 Bft) 97,87 %
26.12.2017 14:36 6,9 C 7,2 C 5,6 C 83 % 0 lf 1000,3 hPa 0,0 l/m 0 min 0 min 91 W/m 31,5 km/h (5 Bft) 93,62 %
26.12.2017 14:38 6,9 C 7,8 C 5,6 C 83 % 0 lf 1000,3 hPa 0,0 l/m 2 min 0 min 119 W/m 29,3 km/h (5 Bft) 97,87 %
26.12.2017 14:40 6,9 C 7,8 C 5,6 C 83 % 0 lf 1000,4 hPa 0,0 l/m 2 min 0 min 113 W/m 38,3 km/h (5 Bft) 95,65 %
26.12.2017 14:42 6,9 C 7,2 C 5,6 C 83 % 0 lf 1000,3 hPa 0,0 l/m 0 min 0 min 89 W/m 31,5 km/h (5 Bft) 93,62 %
26.12.2017 14:44 6,9 C 7,2 C 5,6 C 83 % 0 lf 1000,3 hPa 0,0 l/m 0 min 0 min 77 W/m 22,5 km/h (4 Bft) 93,62 %
26.12.2017 14:46 6,9 C 7,2 C 5,6 C 83 % 0 lf 1000,3 hPa 0,0 l/m 0 min 0 min 78 W/m 15,8 km/h (3 Bft) 89,36 %
26.12.2017 14:48 6,9 C 7,2 C 5,6 C 83 % 0 lf 1000,3 hPa 0,0 l/m 0 min 0 min 77 W/m 27,0 km/h (4 Bft) 91,49 %
26.12.2017 14:50 6,9 C 7,2 C 5,6 C 83 % 0 lf 1000,3 hPa 0,0 l/m 0 min 0 min 76 W/m 29,3 km/h (5 Bft) 93,48 %
26.12.2017 14:52 6,9 C 7,2 C 5,6 C 83 % 0 lf 1000,3 hPa 0,0 l/m 0 min 0 min 76 W/m 27,0 km/h (4 Bft) 89,36 %
26.12.2017 14:54 6,9 C 7,2 C 5,6 C 83 % 0 lf 1000,3 hPa 0,0 l/m 0 min 0 min 75 W/m 22,5 km/h (4 Bft) 95,74 %
26.12.2017 14:56 6,9 C 7,2 C 5,6 C 83 % 0 lf 1000,3 hPa 0,0 l/m 0 min 0 min 77 W/m 38,3 km/h (5 Bft) 95,74 %
26.12.2017 14:58 6,9 C 7,2 C 5,6 C 83 % 0 lf 1000,3 hPa 0,0 l/m 0 min 0 min 79 W/m 38,3 km/h (5 Bft) 91,49 %
26.12.2017 15:00 6,9 C 7,2 C 5,6 C 83 % 0 lf 1000,3 hPa 0,0 l/m 0 min 0 min 79 W/m 42,8 km/h (6 Bft) 95,74 %
26.12.2017 15:02 6,9 C 7,2 C 5,6 C 83 % 0 lf 1000,3 hPa 0,0 l/m 0 min 0 min 76 W/m 31,5 km/h (5 Bft) 93,48 %
26.12.2017 15:04 6,8 C 7,2 C 5,6 C 83 % 0 lf 1000,3 hPa 0,0 l/m 0 min 0 min 75 W/m 36,0 km/h (5 Bft) 97,87 %
26.12.2017 15:06 6,8 C 7,2 C 5,6 C 83 % 0 lf 1000,3 hPa 0,0 l/m 0 min 0 min 74 W/m 29,3 km/h (5 Bft) 97,87 %
26.12.2017 15:08 6,8 C 7,2 C 5,6 C 83 % 0 lf 1000,4 hPa 0,0 l/m 0 min 0 min 70 W/m 31,5 km/h (5 Bft) 95,74 %
26.12.2017 15:10 6,8 C 7,2 C 5,6 C 83 % 0 lf 1000,4 hPa 0,0 l/m 0 min 0 min 70 W/m 45,1 km/h (6 Bft) 95,74 %
26.12.2017 15:12 6,8 C 7,2 C 5,6 C 83 % 0 lf 1000,4 hPa 0,0 l/m 0 min 0 min 64 W/m 36,0 km/h (5 Bft) 95,74 %
26.12.2017 15:14 6,8 C 7,2 C 5,6 C 83 % 0 lf 1000,4 hPa 0,0 l/m 0 min 0 min 62 W/m 27,0 km/h (4 Bft) 97,83 %
26.12.2017 15:16 6,8 C 7,2 C 5,6 C 83 % 0 lf 1000,4 hPa 0,0 l/m 0 min 0 min 68 W/m 33,8 km/h (5 Bft) 97,87 %
26.12.2017 15:18 6,8 C 7,2 C 5,6 C 83 % 0 lf 1000,4 hPa 0,0 l/m 0 min 0 min 66 W/m 42,8 km/h (6 Bft) 93,62 %
26.12.2017 15:20 6,8 C 7,2 C 5,6 C 83 % 0 lf 1000,4 hPa 0,0 l/m 0 min 0 min 65 W/m 38,3 km/h (5 Bft) 93,62 %
26.12.2017 15:22 6,8 C 7,2 C 5,6 C 83 % 0 lf 1000,5 hPa 0,0 l/m 0 min 0 min 58 W/m 38,3 km/h (5 Bft) 95,74 %
26.12.2017 15:24 6,7 C 6,7 C 5,6 C 83 % 0 lf 1000,4 hPa 0,0 l/m 0 min 0 min 56 W/m 29,3 km/h (5 Bft) 97,87 %
26.12.2017 15:26 6,7 C 6,7 C 5,6 C 83 % 0 lf 1000,5 hPa 0,0 l/m 0 min 0 min 56 W/m 40,6 km/h (6 Bft) 97,83 %
26.12.2017 15:28 6,7 C 6,7 C 5,0 C 83 % 0 lf 1000,4 hPa 0,0 l/m 0 min 0 min 57 W/m 29,3 km/h (5 Bft) 100,00 %
26.12.2017 15:30 6,7 C 6,7 C 5,0 C 83 % 0 lf 1000,5 hPa 0,0 l/m 0 min 0 min 57 W/m 24,8 km/h (4 Bft) 93,62 %
26.12.2017 15:32 6,7 C 6,7 C 5,0 C 83 % 0 lf 1000,5 hPa 0,0 l/m 0 min 0 min 52 W/m 22,5 km/h (4 Bft) 100,00 %
26.12.2017 15:34 6,7 C 6,7 C 5,0 C 83 % 0 lf 1000,5 hPa 0,0 l/m 0 min 0 min 48 W/m 40,6 km/h (6 Bft) 100,00 %
26.12.2017 15:36 6,7 C 6,7 C 5,0 C 83 % 0 lf 1000,5 hPa 0,0 l/m 0 min 0 min 46 W/m 45,1 km/h (6 Bft) 100,00 %
26.12.2017 15:38 6,7 C 6,7 C 5,0 C 83 % 0 lf 1000,4 hPa 0,0 l/m 0 min 0 min 44 W/m 29,3 km/h (5 Bft) 100,00 %
26.12.2017 15:40 6,7 C 6,7 C 5,0 C 83 % 0 lf 1000,5 hPa 0,0 l/m 0 min 0 min 42 W/m 36,0 km/h (5 Bft) 100,00 %
26.12.2017 15:42 6,6 C 6,7 C 5,0 C 83 % 0 lf 1000,5 hPa 0,0 l/m 0 min 0 min 41 W/m 31,5 km/h (5 Bft) 97,87 %
26.12.2017 15:44 6,6 C 6,7 C 5,0 C 83 % 0 lf 1000,4 hPa 0,0 l/m 0 min 0 min 37 W/m 45,1 km/h (6 Bft) 97,87 %
26.12.2017 15:46 6,6 C 6,7 C 5,0 C 83 % 0 lf 1000,4 hPa 0,0 l/m 0 min 0 min 30 W/m 33,8 km/h (5 Bft) 97,87 %
26.12.2017 15:48 6,6 C 6,7 C 5,0 C 83 % 0 lf 1000,4 hPa 0,0 l/m 0 min 0 min 25 W/m 40,6 km/h (6 Bft) 100,00 %
26.12.2017 15:50 6,6 C 6,7 C 5,0 C 83 % 0 lf 1000,5 hPa 0,0 l/m 0 min 0 min 20 W/m 33,8 km/h (5 Bft) 100,00 %
26.12.2017 15:52 6,6 C 6,7 C 5,0 C 83 % 0 lf 1000,5 hPa 0,0 l/m 0 min 0 min 17 W/m 31,5 km/h (5 Bft) 97,87 %
26.12.2017 15:54 6,6 C 6,7 C 5,0 C 83 % 0 lf 1000,5 hPa 0,0 l/m 0 min 0 min 14 W/m 33,8 km/h (5 Bft) 100,00 %
26.12.2017 15:56 6,6 C 6,7 C 5,0 C 83 % 0 lf 1000,5 hPa 0,0 l/m 0 min 0 min 14 W/m 33,8 km/h (5 Bft) 100,00 %
26.12.2017 15:58 6,6 C 6,7 C 5,0 C 83 % 0 lf 1000,5 hPa 0,0 l/m 0 min 0 min 14 W/m 31,5 km/h (5 Bft) 97,87 %
26.12.2017 16:00 6,6 C 6,7 C 5,0 C 83 % 0 lf 1000,5 hPa 0,0 l/m 0 min 0 min 14 W/m 31,5 km/h (5 Bft) 95,65 %
26.12.2017 16:02 6,6 C 6,7 C 5,0 C 83 % 0 lf 1000,4 hPa 0,0 l/m 0 min 0 min 13 W/m 31,5 km/h (5 Bft) 97,87 %
26.12.2017 16:04 6,6 C 6,7 C 5,0 C 83 % 0 lf 1000,4 hPa 0,0 l/m 0 min 0 min 11 W/m 27,0 km/h (4 Bft) 100,00 %
26.12.2017 16:06 6,6 C 6,7 C 5,0 C 82 % 0 lf 1000,4 hPa 0,0 l/m 0 min 0 min 10 W/m 27,0 km/h (4 Bft) 100,00 %
26.12.2017 16:08 6,6 C 6,7 C 5,0 C 82 % 0 lf 1000,4 hPa 0,0 l/m 0 min 0 min 9 W/m 29,3 km/h (5 Bft) 97,87 %
26.12.2017 16:10 6,6 C 6,7 C 5,0 C 82 % 0 lf 1000,3 hPa 0,0 l/m 0 min 0 min 9 W/m 27,0 km/h (4 Bft) 97,87 %
26.12.2017 16:12 6,6 C 6,7 C 5,0 C 82 % 0 lf 1000,4 hPa 0,0 l/m 0 min 0 min 11 W/m 36,0 km/h (5 Bft) 100,00 %
26.12.2017 16:14 6,6 C 6,7 C 5,0 C 82 % 0 lf 1000,4 hPa 0,0 l/m 0 min 0 min 10 W/m 38,3 km/h (5 Bft) 97,87 %
26.12.2017 16:16 6,6 C 6,7 C 5,0 C 82 % 0 lf 1000,4 hPa 0,0 l/m 0 min 0 min 9 W/m 24,8 km/h (4 Bft) 97,87 %
26.12.2017 16:18 6,6 C 6,7 C 5,0 C 82 % 0 lf 1000,4 hPa 0,0 l/m 0 min 0 min 7 W/m 24,8 km/h (4 Bft) 93,62 %
26.12.2017 16:20 6,6 C 6,7 C 5,0 C 82 % 0 lf 1000,4 hPa 0,0 l/m 0 min 0 min 7 W/m 31,5 km/h (5 Bft) 100,00 %
26.12.2017 16:22 6,6 C 6,7 C 5,0 C 81 % 0 lf 1000,4 hPa 0,0 l/m 0 min 0 min 7 W/m 27,0 km/h (4 Bft) 100,00 %
26.12.2017 16:24 6,6 C 6,7 C 5,0 C 81 % 0 lf 1000,4 hPa 0,0 l/m 0 min 0 min 7 W/m 27,0 km/h (4 Bft) 97,83 %
26.12.2017 16:26 6,5 C 6,7 C 5,0 C 81 % 0 lf 1000,4 hPa 0,0 l/m 0 min 0 min 7 W/m 33,8 km/h (5 Bft) 93,62 %
26.12.2017 16:28 6,5 C 6,1 C 5,0 C 81 % 0 lf 1000,4 hPa 0,0 l/m 0 min 0 min 6 W/m 27,0 km/h (4 Bft) 91,49 %
26.12.2017 16:30 6,5 C 6,1 C 5,0 C 81 % 0 lf 1000,4 hPa 0,0 l/m 0 min 0 min 5 W/m 45,1 km/h (6 Bft) 93,62 %
26.12.2017 16:32 6,5 C 6,1 C 5,0 C 81 % 0 lf 1000,4 hPa 0,0 l/m 0 min 0 min 2 W/m 22,5 km/h (4 Bft) 93,62 %
26.12.2017 16:34 6,5 C 6,1 C 5,0 C 81 % 0 lf 1000,4 hPa 0,0 l/m 0 min 0 min 0 W/m 27,0 km/h (4 Bft) 91,49 %
26.12.2017 16:36 6,5 C 6,7 C 5,0 C 81 % 0 lf 1000,4 hPa 0,0 l/m 0 min 0 min 0 W/m 27,0 km/h (4 Bft) 91,30 %
26.12.2017 16:38 6,5 C 6,7 C 5,0 C 81 % 0 lf 1000,4 hPa 0,0 l/m 0 min 0 min 0 W/m 31,5 km/h (5 Bft) 93,62 %
26.12.2017 16:40 6,5 C 6,7 C 5,0 C 81 % 0 lf 1000,4 hPa 0,0 l/m 0 min 0 min 0 W/m 40,6 km/h (6 Bft) 93,62 %
26.12.2017 16:42 6,5 C 6,7 C 5,0 C 81 % 0 lf 1000,3 hPa 0,0 l/m 0 min 0 min 0 W/m 33,8 km/h (5 Bft) 87,23 %
26.12.2017 16:44 6,5 C 6,1 C 5,0 C 81 % 0 lf 1000,3 hPa 0,0 l/m 0 min 0 min 0 W/m 18,0 km/h (3 Bft) 93,62 %
26.12.2017 16:46 6,5 C 6,1 C 5,0 C 81 % 0 lf 1000,4 hPa 0,0 l/m 0 min 0 min 0 W/m 20,3 km/h (4 Bft) 91,49 %
26.12.2017 16:48 6,5 C 6,1 C 5,0 C 82 % 0 lf 1000,4 hPa 0,0 l/m 0 min 0 min 0 W/m 20,3 km/h (4 Bft) 93,48 %
26.12.2017 16:50 6,5 C 6,1 C 5,0 C 82 % 0 lf 1000,4 hPa 0,0 l/m 0 min 0 min 0 W/m 31,5 km/h (5 Bft) 93,62 %
26.12.2017 16:52 6,5 C 6,1 C 5,0 C 82 % 0 lf 1000,4 hPa 0,0 l/m 0 min 0 min 0 W/m 18,0 km/h (3 Bft) 91,49 %
26.12.2017 16:54 6,4 C 6,1 C 5,0 C 82 % 0 lf 1000,4 hPa 0,0 l/m 0 min 0 min 0 W/m 29,3 km/h (5 Bft) 93,62 %
26.12.2017 16:56 6,4 C 6,1 C 5,0 C 82 % 0 lf 1000,3 hPa 0,0 l/m 0 min 0 min 0 W/m 18,0 km/h (3 Bft) 93,62 %
26.12.2017 16:58 6,4 C 6,1 C 5,0 C 82 % 0 lf 1000,4 hPa 0,0 l/m 0 min 0 min 0 W/m 15,8 km/h (3 Bft) 93,62 %
26.12.2017 17:00 6,4 C 6,1 C 5,0 C 82 % 0 lf 1000,4 hPa 0,0 l/m 0 min 0 min 0 W/m 18,0 km/h (3 Bft) 89,13 %
26.12.2017 17:02 6,4 C 6,1 C 5,0 C 82 % 0 lf 1000,3 hPa 0,0 l/m 0 min 0 min 0 W/m 27,0 km/h (4 Bft) 95,74 %
26.12.2017 17:04 6,4 C 6,1 C 5,0 C 82 % 0 lf 1000,2 hPa 0,0 l/m 0 min 0 min 0 W/m 24,8 km/h (4 Bft) 95,74 %
26.12.2017 17:06 6,4 C 6,1 C 5,0 C 82 % 0 lf 1000,1 hPa 0,0 l/m 0 min 0 min 0 W/m 15,8 km/h (3 Bft) 95,74 %
26.12.2017 17:08 6,4 C 6,1 C 5,0 C 82 % 0 lf 1000,1 hPa 0,0 l/m 0 min 0 min 0 W/m 20,3 km/h (4 Bft) 93,62 %
26.12.2017 17:10 6,4 C 6,1 C 5,0 C 82 % 0 lf 1000,1 hPa 0,0 l/m 0 min 0 min 0 W/m 20,3 km/h (4 Bft) 97,83 %
26.12.2017 17:12 6,4 C 6,1 C 5,0 C 82 % 0 lf 1000,1 hPa 0,0 l/m 0 min 0 min 0 W/m 24,8 km/h (4 Bft) 95,74 %
26.12.2017 17:14 6,4 C 6,1 C 5,0 C 82 % 0 lf 1000,1 hPa 0,0 l/m 0 min 0 min 0 W/m 22,5 km/h (4 Bft) 97,87 %
26.12.2017 17:16 6,4 C 6,1 C 5,0 C 83 % 0 lf 1000,1 hPa 0,0 l/m 0 min 0 min 0 W/m 18,0 km/h (3 Bft) 97,87 %
26.12.2017 17:18 6,4 C 6,1 C 5,0 C 83 % 0 lf 1000,1 hPa 0,0 l/m 0 min 0 min 0 W/m 29,3 km/h (5 Bft) 97,87 %
26.12.2017 17:20 6,4 C 6,1 C 5,0 C 83 % 0 lf 1000,1 hPa 0,0 l/m 0 min 0 min 0 W/m 29,3 km/h (5 Bft) 97,87 %
26.12.2017 17:22 6,4 C 6,1 C 5,0 C 83 % 0 lf 1000,1 hPa 0,0 l/m 0 min 0 min 0 W/m 27,0 km/h (4 Bft) 91,30 %
26.12.2017 17:24 6,4 C 6,1 C 5,0 C 83 % 0 lf 1000,1 hPa 0,0 l/m 0 min 0 min 0 W/m 22,5 km/h (4 Bft) 97,87 %
26.12.2017 17:26 6,3 C 6,1 C 5,0 C 83 % 0 lf 1000,1 hPa 0,0 l/m 0 min 0 min 0 W/m 22,5 km/h (4 Bft) 97,87 %
26.12.2017 17:28 6,3 C 6,1 C 5,0 C 83 % 0 lf 1000,2 hPa 0,0 l/m 0 min 0 min 0 W/m 24,8 km/h (4 Bft) 97,87 %
26.12.2017 17:30 6,3 C 6,1 C 5,0 C 83 % 0 lf 1000,2 hPa 0,0 l/m 0 min 0 min 0 W/m 20,3 km/h (4 Bft) 95,74 %
26.12.2017 17:32 6,3 C 6,1 C 4,4 C 83 % 0 lf 1000,1 hPa 0,0 l/m 0 min 0 min 0 W/m 20,3 km/h (4 Bft) 97,87 %
26.12.2017 17:34 6,3 C 6,1 C 4,4 C 83 % 0 lf 1000,1 hPa 0,0 l/m 0 min 0 min 0 W/m 20,3 km/h (4 Bft) 95,65 %
26.12.2017 17:36 6,3 C 6,1 C 4,4 C 83 % 0 lf 1000,1 hPa 0,0 l/m 0 min 0 min 0 W/m 24,8 km/h (4 Bft) 97,87 %
26.12.2017 17:38 6,3 C 6,1 C 4,4 C 84 % 0 lf 1000,1 hPa 0,0 l/m 0 min 0 min 0 W/m 27,0 km/h (4 Bft) 93,62 %
26.12.2017 17:40 6,3 C 6,1 C 4,4 C 84 % 0 lf 1000,1 hPa 0,0 l/m 0 min 0 min 0 W/m 24,8 km/h (4 Bft) 95,74 %
26.12.2017 17:42 6,3 C 6,1 C 4,4 C 84 % 0 lf 1000,1 hPa 0,0 l/m 0 min 0 min 0 W/m 33,8 km/h (5 Bft) 97,87 %
26.12.2017 17:44 6,2 C 6,1 C 4,4 C 84 % 0 lf 1000,1 hPa 0,0 l/m 0 min 0 min 0 W/m 29,3 km/h (5 Bft) 95,74 %
26.12.2017 17:46 6,2 C 6,1 C 4,4 C 84 % 0 lf 1000,1 hPa 0,0 l/m 0 min 0 min 0 W/m 31,5 km/h (5 Bft) 97,83 %
26.12.2017 17:48 6,2 C 6,1 C 4,4 C 84 % 0 lf 1000,0 hPa 0,0 l/m 0 min 0 min 0 W/m 29,3 km/h (5 Bft) 97,87 %
26.12.2017 17:50 6,2 C 6,1 C 4,4 C 84 % 0 lf 1000,0 hPa 0,0 l/m 0 min 0 min 0 W/m 36,0 km/h (5 Bft) 97,87 %
26.12.2017 17:52 6,2 C 6,1 C 4,4 C 84 % 0 lf 1000,0 hPa 0,0 l/m 0 min 0 min 0 W/m 27,0 km/h (4 Bft) 97,87 %
26.12.2017 17:54 6,2 C 5,6 C 4,4 C 84 % 0 lf 999,9 hPa 0,0 l/m 0 min 0 min 0 W/m 22,5 km/h (4 Bft) 97,87 %
26.12.2017 17:56 6,1 C 5,6 C 4,4 C 84 % 0 lf 999,8 hPa 0,0 l/m 0 min 0 min 0 W/m 13,5 km/h (3 Bft) 93,62 %
26.12.2017 17:58 6,1 C 5,6 C 4,4 C 84 % 0 lf 999,8 hPa 0,0 l/m 0 min 0 min 0 W/m 27,0 km/h (4 Bft) 93,48 %
26.12.2017 18:00 6,1 C 5,6 C 4,4 C 84 % 0 lf 999,8 hPa 0,0 l/m 0 min 0 min 0 W/m 27,0 km/h (4 Bft) 95,74 %
26.12.2017 18:02 6,1 C 5,6 C 4,4 C 85 % 0 lf 999,8 hPa 0,0 l/m 0 min 0 min 0 W/m 27,0 km/h (4 Bft) 95,74 %
26.12.2017 18:04 6,1 C 5,6 C 4,4 C 85 % 0 lf 999,7 hPa 0,0 l/m 0 min 0 min 0 W/m 24,8 km/h (4 Bft) 97,87 %
26.12.2017 18:06 6,0 C 5,6 C 4,4 C 85 % 0 lf 999,7 hPa 0,0 l/m 0 min 0 min 0 W/m 29,3 km/h (5 Bft) 95,74 %
26.12.2017 18:10 6,0 C 5,6 C 4,4 C 85 % 0 lf 999,7 hPa 0,0 l/m 0 min 0 min 0 W/m 22,5 km/h (4 Bft) 96,88 %
26.12.2017 18:12 6,0 C 5,6 C 4,4 C 85 % 0 lf 999,7 hPa 0,0 l/m 0 min 0 min 0 W/m 18,0 km/h (3 Bft) 93,62 %
26.12.2017 18:14 5,9 C 5,6 C 4,4 C 85 % 0 lf 999,8 hPa 0,0 l/m 0 min 0 min 0 W/m 31,5 km/h (5 Bft) 95,74 %
26.12.2017 18:16 5,9 C 6,1 C 4,4 C 85 % 0 lf 999,8 hPa 0,0 l/m 0 min 0 min 0 W/m 29,3 km/h (5 Bft) 97,87 %
26.12.2017 18:18 5,9 C 6,1 C 4,4 C 85 % 0 lf 999,8 hPa 0,0 l/m 0 min 0 min 0 W/m 33,8 km/h (5 Bft) 97,87 %
26.12.2017 18:20 6,0 C 6,1 C 4,4 C 85 % 0 lf 999,7 hPa 0,0 l/m 0 min 0 min 0 W/m 24,8 km/h (4 Bft) 95,65 %
26.12.2017 18:22 6,0 C 6,1 C 4,4 C 85 % 0 lf 999,8 hPa 0,0 l/m 0 min 0 min 0 W/m 18,0 km/h (3 Bft) 97,87 %
26.12.2017 18:24 5,9 C 6,1 C 4,4 C 85 % 0 lf 999,7 hPa 0,0 l/m 0 min 0 min 0 W/m 24,8 km/h (4 Bft) 95,74 %
26.12.2017 18:26 6,0 C 6,1 C 4,4 C 85 % 0 lf 999,8 hPa 0,0 l/m 0 min 0 min 0 W/m 36,0 km/h (5 Bft) 95,74 %
26.12.2017 18:28 6,0 C 6,1 C 4,4 C 85 % 0 lf 999,8 hPa 0,0 l/m 0 min 0 min 0 W/m 20,3 km/h (4 Bft) 95,74 %
26.12.2017 18:30 6,0 C 6,1 C 4,4 C 85 % 0 lf 999,7 hPa 0,0 l/m 0 min 0 min 0 W/m 20,3 km/h (4 Bft) 97,87 %
26.12.2017 18:32 6,0 C 6,1 C 4,4 C 85 % 0 lf 999,7 hPa 0,0 l/m 0 min 0 min 0 W/m 15,8 km/h (3 Bft) 97,83 %
26.12.2017 18:34 6,0 C 6,1 C 4,4 C 85 % 0 lf 999,6 hPa 0,0 l/m 0 min 0 min 0 W/m 29,3 km/h (5 Bft) 95,74 %
26.12.2017 18:36 6,0 C 6,1 C 4,4 C 85 % 0 lf 999,6 hPa 0,0 l/m 0 min 0 min 0 W/m 24,8 km/h (4 Bft) 95,74 %
26.12.2017 18:38 6,0 C 6,1 C 4,4 C 84 % 0 lf 999,5 hPa 0,0 l/m 0 min 0 min 0 W/m 24,8 km/h (4 Bft) 95,74 %
26.12.2017 18:40 6,0 C 5,6 C 4,4 C 84 % 0 lf 999,6 hPa 0,0 l/m 0 min 0 min 0 W/m 31,5 km/h (5 Bft) 93,62 %
26.12.2017 18:42 6,0 C 5,6 C 4,4 C 84 % 0 lf 999,5 hPa 0,0 l/m 0 min 0 min 0 W/m 27,0 km/h (4 Bft) 97,87 %
26.12.2017 18:44 5,9 C 5,6 C 3,9 C 84 % 0 lf 999,5 hPa 0,0 l/m 0 min 0 min 0 W/m 15,8 km/h (3 Bft) 95,65 %
26.12.2017 18:46 5,9 C 5,6 C 3,9 C 84 % 0 lf 999,5 hPa 0,0 l/m 0 min 0 min 0 W/m 33,8 km/h (5 Bft) 97,87 %
26.12.2017 18:48 5,9 C 5,6 C 3,9 C 84 % 0 lf 999,5 hPa 0,0 l/m 0 min 0 min 0 W/m 24,8 km/h (4 Bft) 95,74 %
26.12.2017 18:50 5,9 C 5,6 C 3,9 C 84 % 0 lf 999,5 hPa 0,0 l/m 0 min 0 min 0 W/m 24,8 km/h (4 Bft) 97,87 %
26.12.2017 18:52 5,9 C 5,6 C 3,9 C 84 % 0 lf 999,6 hPa 0,0 l/m 0 min 0 min 0 W/m 31,5 km/h (5 Bft) 91,49 %
26.12.2017 18:54 5,8 C 5,6 C 3,9 C 84 % 0 lf 999,5 hPa 0,0 l/m 0 min 0 min 0 W/m 22,5 km/h (4 Bft) 97,83 %
26.12.2017 18:56 5,8 C 5,6 C 3,9 C 84 % 0 lf 999,5 hPa 0,0 l/m 0 min 0 min 0 W/m 20,3 km/h (4 Bft) 91,49 %
26.12.2017 18:58 5,8 C 5,0 C 3,3 C 84 % 0 lf 999,5 hPa 0,0 l/m 0 min 0 min 0 W/m 15,8 km/h (3 Bft) 97,87 %
26.12.2017 19:00 5,7 C 5,0 C 3,3 C 84 % 0 lf 999,5 hPa 0,0 l/m 0 min 0 min 0 W/m 22,5 km/h (4 Bft) 100,00 %
26.12.2017 19:02 5,7 C 5,0 C 3,3 C 84 % 0 lf 999,5 hPa 0,0 l/m 0 min 0 min 0 W/m 24,8 km/h (4 Bft) 100,00 %
26.12.2017 19:04 5,7 C 5,0 C 3,3 C 84 % 0 lf 999,5 hPa 0,0 l/m 0 min 0 min 0 W/m 18,0 km/h (3 Bft) 91,49 %
26.12.2017 19:06 5,6 C 5,0 C 3,3 C 84 % 0 lf 999,5 hPa 0,0 l/m 0 min 0 min 0 W/m 20,3 km/h (4 Bft) 97,83 %
26.12.2017 19:08 5,6 C 5,0 C 3,3 C 84 % 0 lf 999,5 hPa 0,0 l/m 0 min 0 min 0 W/m 22,5 km/h (4 Bft) 97,87 %
26.12.2017 19:10 5,6 C 5,0 C 3,9 C 84 % 0 lf 999,5 hPa 0,0 l/m 0 min 0 min 0 W/m 20,3 km/h (4 Bft) 97,87 %
26.12.2017 19:12 5,5 C 5,0 C 3,9 C 84 % 0 lf 999,4 hPa 0,0 l/m 0 min 0 min 0 W/m 15,8 km/h (3 Bft) 97,87 %
26.12.2017 19:14 5,5 C 5,0 C 3,3 C 84 % 0 lf 999,4 hPa 0,0 l/m 0 min 0 min 0 W/m 15,8 km/h (3 Bft) 97,87 %
26.12.2017 19:16 5,5 C 5,0 C 3,3 C 84 % 0 lf 999,4 hPa 0,0 l/m 0 min 0 min 0 W/m 15,8 km/h (3 Bft) 97,87 %
26.12.2017 19:18 5,4 C 5,0 C 3,3 C 84 % 0 lf 999,3 hPa 0,0 l/m 0 min 0 min 0 W/m 22,5 km/h (4 Bft) 95,65 %
26.12.2017 19:20 5,4 C 5,0 C 3,3 C 84 % 0 lf 999,3 hPa 0,0 l/m 0 min 0 min 0 W/m 15,8 km/h (3 Bft) 97,87 %
26.12.2017 19:22 5,4 C 5,0 C 3,3 C 84 % 0 lf 999,2 hPa 0,0 l/m 0 min 0 min 0 W/m 15,8 km/h (3 Bft) 97,87 %
26.12.2017 19:24 5,4 C 5,0 C 3,3 C 84 % 0 lf 999,2 hPa 0,0 l/m 0 min 0 min 0 W/m 15,8 km/h (3 Bft) 97,87 %
26.12.2017 19:26 5,4 C 5,0 C 3,3 C 84 % 0 lf 999,1 hPa 0,0 l/m 0 min 0 min 0 W/m 24,8 km/h (4 Bft) 95,74 %
26.12.2017 19:28 5,3 C 5,0 C 3,3 C 84 % 0 lf 999,1 hPa 0,0 l/m 0 min 0 min 0 W/m 15,8 km/h (3 Bft) 97,87 %
26.12.2017 19:30 5,3 C 5,0 C 3,3 C 84 % 0 lf 999,0 hPa 0,0 l/m 0 min 0 min 0 W/m 20,3 km/h (4 Bft) 97,83 %
26.12.2017 19:32 5,3 C 5,0 C 3,3 C 84 % 0 lf 998,9 hPa 0,0 l/m 0 min 0 min 0 W/m 24,8 km/h (4 Bft) 97,87 %
26.12.2017 19:34 5,3 C 5,0 C 3,3 C 84 % 0 lf 998,9 hPa 0,0 l/m 0 min 0 min 0 W/m 20,3 km/h (4 Bft) 97,87 %
26.12.2017 19:36 5,3 C 5,0 C 3,3 C 84 % 0 lf 998,8 hPa 0,0 l/m 0 min 0 min 0 W/m 20,3 km/h (4 Bft) 95,74 %
26.12.2017 19:38 5,3 C 5,0 C 3,3 C 84 % 0 lf 998,8 hPa 0,0 l/m 0 min 0 min 0 W/m 20,3 km/h (4 Bft) 97,87 %
26.12.2017 19:40 5,2 C 5,0 C 3,3 C 84 % 0 lf 998,7 hPa 0,0 l/m 0 min 0 min 0 W/m 18,0 km/h (3 Bft) 97,87 %
26.12.2017 19:42 5,2 C 5,0 C 2,8 C 84 % 0 lf 998,7 hPa 0,0 l/m 0 min 0 min 0 W/m 18,0 km/h (3 Bft) 97,83 %
26.12.2017 19:44 5,2 C 5,0 C 2,8 C 84 % 0 lf 998,7 hPa 0,0 l/m 0 min 0 min 0 W/m 18,0 km/h (3 Bft) 97,87 %
26.12.2017 19:46 5,2 C 4,4 C 2,8 C 84 % 0 lf 998,7 hPa 0,0 l/m 0 min 0 min 0 W/m 15,8 km/h (3 Bft) 95,74 %
26.12.2017 19:48 5,2 C 5,0 C 2,8 C 84 % 0 lf 998,6 hPa 0,0 l/m 0 min 0 min 0 W/m 18,0 km/h (3 Bft) 97,87 %
26.12.2017 19:50 5,2 C 4,4 C 2,8 C 84 % 0 lf 998,5 hPa 0,0 l/m 0 min 0 min 0 W/m 18,0 km/h (3 Bft) 97,87 %
26.12.2017 19:52 5,1 C 4,4 C 2,8 C 85 % 0 lf 998,5 hPa 0,0 l/m 0 min 0 min 0 W/m 22,5 km/h (4 Bft) 97,87 %
26.12.2017 19:54 5,1 C 4,4 C 2,8 C 85 % 0 lf 998,4 hPa 0,0 l/m 0 min 0 min 0 W/m 15,8 km/h (3 Bft) 100,00 %
26.12.2017 19:56 5,1 C 4,4 C 2,8 C 85 % 0 lf 998,4 hPa 0,0 l/m 0 min 0 min 0 W/m 18,0 km/h (3 Bft) 100,00 %
26.12.2017 19:58 5,1 C 4,4 C 2,8 C 85 % 0 lf 998,3 hPa 0,0 l/m 0 min 0 min 0 W/m 18,0 km/h (3 Bft) 97,87 %
26.12.2017 20:00 5,0 C 4,4 C 2,8 C 85 % 0 lf 998,2 hPa 0,0 l/m 0 min 0 min 0 W/m 15,8 km/h (3 Bft) 100,00 %
26.12.2017 20:02 5,0 C 4,4 C 2,8 C 85 % 0 lf 998,2 hPa 0,0 l/m 0 min 0 min 0 W/m 24,8 km/h (4 Bft) 100,00 %
26.12.2017 20:04 5,0 C 4,4 C 2,8 C 85 % 0 lf 998,2 hPa 0,0 l/m 0 min 0 min 0 W/m 15,8 km/h (3 Bft) 100,00 %
26.12.2017 20:06 4,9 C 4,4 C 2,8 C 85 % 0 lf 998,0 hPa 0,0 l/m 0 min 0 min 0 W/m 15,8 km/h (3 Bft) 100,00 %
26.12.2017 20:08 4,9 C 4,4 C 2,8 C 85 % 0 lf 998,0 hPa 0,0 l/m 0 min 0 min 0 W/m 20,3 km/h (4 Bft) 97,87 %
26.12.2017 20:10 4,9 C 4,4 C 2,8 C 85 % 0 lf 997,9 hPa 0,0 l/m 0 min 0 min 0 W/m 18,0 km/h (3 Bft) 97,87 %
26.12.2017 20:12 4,9 C 4,4 C 2,8 C 85 % 0 lf 997,8 hPa 0,0 l/m 0 min 0 min 0 W/m 22,5 km/h (4 Bft) 100,00 %
26.12.2017 20:14 4,8 C 4,4 C 2,8 C 85 % 0 lf 997,8 hPa 0,0 l/m 0 min 0 min 0 W/m 20,3 km/h (4 Bft) 97,87 %
26.12.2017 20:16 4,8 C 4,4 C 2,8 C 85 % 0 lf 997,8 hPa 0,0 l/m 0 min 0 min 0 W/m 20,3 km/h (4 Bft) 95,65 %
26.12.2017 20:18 4,8 C 4,4 C 2,8 C 85 % 0 lf 997,8 hPa 0,0 l/m 0 min 0 min 0 W/m 18,0 km/h (3 Bft) 97,87 %
26.12.2017 20:20 4,8 C 4,4 C 2,8 C 85 % 0 lf 997,8 hPa 0,0 l/m 0 min 0 min 0 W/m 13,5 km/h (3 Bft) 97,87 %
26.12.2017 20:22 4,8 C 4,4 C 2,8 C 85 % 0 lf 997,7 hPa 0,0 l/m 0 min 0 min 0 W/m 22,5 km/h (4 Bft) 97,87 %
26.12.2017 20:24 4,8 C 4,4 C 2,8 C 85 % 0 lf 997,7 hPa 0,0 l/m 0 min 0 min 0 W/m 18,0 km/h (3 Bft) 95,74 %
26.12.2017 20:26 4,8 C 4,4 C 2,8 C 85 % 0 lf 997,7 hPa 0,0 l/m 0 min 0 min 0 W/m 15,8 km/h (3 Bft) 95,74 %
26.12.2017 20:28 4,7 C 4,4 C 2,8 C 85 % 0 lf 997,6 hPa 0,0 l/m 0 min 0 min 0 W/m 20,3 km/h (4 Bft) 95,65 %
26.12.2017 20:30 4,7 C 4,4 C 2,8 C 85 % 0 lf 997,6 hPa 0,0 l/m 0 min 0 min 0 W/m 18,0 km/h (3 Bft) 91,49 %
26.12.2017 20:32 4,7 C 4,4 C 2,8 C 85 % 0 lf 997,6 hPa 0,0 l/m 0 min 0 min 0 W/m 15,8 km/h (3 Bft) 93,62 %
26.12.2017 20:34 4,7 C 4,4 C 2,8 C 85 % 0 lf 997,6 hPa 0,0 l/m 0 min 0 min 0 W/m 20,3 km/h (4 Bft) 89,36 %
26.12.2017 20:36 4,7 C 4,4 C 2,8 C 85 % 0 lf 997,5 hPa 0,0 l/m 0 min 0 min 0 W/m 15,8 km/h (3 Bft) 93,62 %
26.12.2017 20:38 4,7 C 4,4 C 2,8 C 86 % 0 lf 997,5 hPa 0,0 l/m 0 min 0 min 0 W/m 20,3 km/h (4 Bft) 93,62 %
26.12.2017 20:40 4,7 C 4,4 C 2,8 C 86 % 0 lf 997,4 hPa 0,0 l/m 0 min 0 min 0 W/m 27,0 km/h (4 Bft) 93,48 %
26.12.2017 20:42 4,6 C 4,4 C 2,8 C 86 % 0 lf 997,3 hPa 0,0 l/m 0 min 0 min 0 W/m 18,0 km/h (3 Bft) 93,62 %
26.12.2017 20:44 4,6 C 4,4 C 2,2 C 86 % 0 lf 997,3 hPa 0,0 l/m 0 min 0 min 0 W/m 15,8 km/h (3 Bft) 93,62 %
26.12.2017 20:46 4,6 C 4,4 C 2,2 C 86 % 0 lf 997,2 hPa 0,0 l/m 0 min 0 min 0 W/m 20,3 km/h (4 Bft) 93,62 %
26.12.2017 20:48 4,6 C 3,9 C 2,2 C 86 % 0 lf 997,3 hPa 0,0 l/m 0 min 0 min 0 W/m 20,3 km/h (4 Bft) 93,62 %
26.12.2017 20:50 4,6 C 4,4 C 2,2 C 86 % 0 lf 997,2 hPa 0,0 l/m 0 min 0 min 0 W/m 18,0 km/h (3 Bft) 93,62 %
26.12.2017 20:52 4,5 C 3,9 C 2,2 C 86 % 0 lf 997,2 hPa 0,0 l/m 0 min 0 min 0 W/m 15,8 km/h (3 Bft) 95,65 %
26.12.2017 20:54 4,5 C 3,9 C 2,2 C 86 % 0 lf 997,2 hPa 0,0 l/m 0 min 0 min 0 W/m 18,0 km/h (3 Bft) 95,74 %
26.12.2017 20:56 4,5 C 4,4 C 2,2 C 86 % 0 lf 997,1 hPa 0,0 l/m 0 min 0 min 0 W/m 24,8 km/h (4 Bft) 97,87 %
26.12.2017 20:58 4,4 C 4,4 C 2,2 C 86 % 0 lf 997,0 hPa 0,0 l/m 0 min 0 min 0 W/m 18,0 km/h (3 Bft) 95,74 %
26.12.2017 21:00 4,4 C 4,4 C 2,2 C 86 % 0 lf 997,0 hPa 0,0 l/m 0 min 0 min 0 W/m 20,3 km/h (4 Bft) 91,49 %
26.12.2017 21:02 4,4 C 4,4 C 2,2 C 86 % 0 lf 996,8 hPa 0,0 l/m 0 min 0 min 0 W/m 20,3 km/h (4 Bft) 95,74 %
26.12.2017 21:04 4,4 C 3,9 C 2,2 C 86 % 0 lf 996,9 hPa 0,0 l/m 0 min 0 min 0 W/m 15,8 km/h (3 Bft) 93,48 %
26.12.2017 21:06 4,4 C 3,9 C 2,2 C 86 % 0 lf 996,7 hPa 0,0 l/m 0 min 0 min 0 W/m 13,5 km/h (3 Bft) 89,36 %
26.12.2017 21:08 4,4 C 3,9 C 2,2 C 86 % 0 lf 996,7 hPa 0,0 l/m 0 min 0 min 0 W/m 13,5 km/h (3 Bft) 95,74 %
26.12.2017 21:10 4,4 C 3,9 C 2,2 C 86 % 0 lf 996,7 hPa 0,0 l/m 0 min 0 min 0 W/m 13,5 km/h (3 Bft) 95,74 %
26.12.2017 21:12 4,3 C 3,9 C 2,2 C 86 % 0 lf 996,7 hPa 0,0 l/m 0 min 0 min 0 W/m 15,8 km/h (3 Bft) 95,74 %
26.12.2017 21:14 4,3 C 3,9 C 2,2 C 87 % 0 lf 996,6 hPa 0,0 l/m 0 min 0 min 0 W/m 13,5 km/h (3 Bft) 93,62 %
26.12.2017 21:16 4,3 C 3,9 C 2,2 C 87 % 0 lf 996,7 hPa 0,0 l/m 0 min 0 min 0 W/m 15,8 km/h (3 Bft) 93,48 %
26.12.2017 21:18 4,2 C 3,9 C 2,2 C 86 % 0 lf 996,6 hPa 0,0 l/m 0 min 0 min 0 W/m 13,5 km/h (3 Bft) 97,87 %
26.12.2017 21:20 4,2 C 3,9 C 2,2 C 86 % 0 lf 996,6 hPa 0,0 l/m 0 min 0 min 0 W/m 15,8 km/h (3 Bft) 97,87 %
26.12.2017 21:22 4,2 C 3,9 C 2,2 C 86 % 0 lf 996,6 hPa 0,0 l/m 0 min 0 min 0 W/m 18,0 km/h (3 Bft) 97,87 %
26.12.2017 21:24 4,2 C 3,9 C 2,2 C 87 % 0 lf 996,6 hPa 0,0 l/m 0 min 0 min 0 W/m 13,5 km/h (3 Bft) 93,62 %
26.12.2017 21:26 4,1 C 3,9 C 2,2 C 87 % 0 lf 996,5 hPa 0,0 l/m 0 min 0 min 0 W/m 15,8 km/h (3 Bft) 97,83 %
26.12.2017 21:28 4,1 C 3,9 C 2,2 C 87 % 0 lf 996,5 hPa 0,0 l/m 0 min 0 min 0 W/m 18,0 km/h (3 Bft) 93,62 %
26.12.2017 21:30 4,1 C 3,9 C 2,2 C 87 % 0 lf 996,5 hPa 0,0 l/m 0 min 0 min 0 W/m 15,8 km/h (3 Bft) 97,87 %
26.12.2017 21:32 4,1 C 3,9 C 2,2 C 87 % 0 lf 996,4 hPa 0,0 l/m 0 min 0 min 0 W/m 11,3 km/h (2 Bft) 91,49 %
26.12.2017 21:34 4,0 C 3,9 C 2,2 C 87 % 0 lf 996,4 hPa 0,0 l/m 0 min 0 min 0 W/m 11,3 km/h (2 Bft) 100,00 %
26.12.2017 21:36 4,0 C 3,9 C 2,2 C 87 % 0 lf 996,3 hPa 0,0 l/m 0 min 0 min 0 W/m 13,5 km/h (3 Bft) 97,87 %
26.12.2017 21:38 4,0 C 3,9 C 2,2 C 87 % 0 lf 996,3 hPa 0,0 l/m 0 min 0 min 0 W/m 15,8 km/h (3 Bft) 100,00 %
26.12.2017 21:40 4,0 C 3,9 C 2,2 C 87 % 0 lf 996,3 hPa 0,0 l/m 0 min 0 min 0 W/m 13,5 km/h (3 Bft) 97,87 %
26.12.2017 21:42 3,9 C 3,9 C 2,2 C 87 % 0 lf 996,3 hPa 0,0 l/m 0 min 0 min 0 W/m 13,5 km/h (3 Bft) 95,74 %
26.12.2017 21:44 4,0 C 3,9 C 2,8 C 87 % 0 lf 996,3 hPa 0,0 l/m 0 min 0 min 0 W/m 13,5 km/h (3 Bft) 97,87 %
26.12.2017 21:46 3,9 C 3,9 C 2,8 C 87 % 0 lf 996,2 hPa 0,0 l/m 0 min 0 min 0 W/m 13,5 km/h (3 Bft) 97,87 %
26.12.2017 21:48 3,9 C 3,9 C 2,8 C 87 % 0 lf 996,2 hPa 0,0 l/m 0 min 0 min 0 W/m 15,8 km/h (3 Bft) 95,74 %
26.12.2017 21:50 3,9 C 3,9 C 2,8 C 88 % 0 lf 996,2 hPa 0,0 l/m 0 min 0 min 0 W/m 13,5 km/h (3 Bft) 97,83 %
26.12.2017 21:52 4,0 C 3,9 C 2,8 C 88 % 0 lf 996,2 hPa 0,0 l/m 0 min 0 min 0 W/m 13,5 km/h (3 Bft) 97,87 %
26.12.2017 21:54 4,0 C 3,9 C 2,8 C 88 % 0 lf 996,2 hPa 0,0 l/m 0 min 0 min 0 W/m 20,3 km/h (4 Bft) 95,74 %
26.12.2017 21:56 4,0 C 3,9 C 2,2 C 88 % 0 lf 996,1 hPa 0,0 l/m 0 min 0 min 0 W/m 15,8 km/h (3 Bft) 95,74 %
26.12.2017 21:58 4,0 C 3,9 C 2,2 C 88 % 0 lf 996,2 hPa 0,0 l/m 0 min 0 min 0 W/m 13,5 km/h (3 Bft) 93,62 %
26.12.2017 22:00 4,0 C 3,9 C 2,2 C 88 % 0 lf 996,2 hPa 0,0 l/m 0 min 0 min 0 W/m 11,3 km/h (2 Bft) 97,87 %
26.12.2017 22:02 4,0 C 3,9 C 2,2 C 88 % 0 lf 996,0 hPa 0,0 l/m 0 min 0 min 0 W/m 11,3 km/h (2 Bft) 97,87 %
26.12.2017 22:04 4,0 C 3,9 C 2,2 C 88 % 0 lf 996,2 hPa 0,0 l/m 0 min 0 min 0 W/m 15,8 km/h (3 Bft) 97,83 %
26.12.2017 22:06 3,9 C 3,9 C 2,2 C 88 % 0 lf 996,1 hPa 0,0 l/m 0 min 0 min 0 W/m 13,5 km/h (3 Bft) 95,74 %
26.12.2017 22:08 3,9 C 3,9 C 2,2 C 88 % 0 lf 996,0 hPa 0,0 l/m 0 min 0 min 0 W/m 13,5 km/h (3 Bft) 95,74 %
26.12.2017 22:10 3,9 C 3,9 C 2,2 C 88 % 0 lf 995,9 hPa 0,0 l/m 0 min 0 min 0 W/m 13,5 km/h (3 Bft) 93,62 %
26.12.2017 22:12 3,9 C 3,9 C 2,2 C 88 % 0 lf 995,9 hPa 0,0 l/m 0 min 0 min 0 W/m 15,8 km/h (3 Bft) 93,62 %
26.12.2017 22:14 3,9 C 3,9 C 2,2 C 88 % 0 lf 995,9 hPa 0,0 l/m 0 min 0 min 0 W/m 18,0 km/h (3 Bft) 95,65 %
26.12.2017 22:16 3,9 C 3,9 C 2,2 C 88 % 0 lf 995,8 hPa 0,0 l/m 0 min 0 min 0 W/m 13,5 km/h (3 Bft) 91,49 %
26.12.2017 22:18 3,9 C 3,3 C 2,2 C 88 % 0 lf 995,8 hPa 0,0 l/m 0 min 0 min 0 W/m 11,3 km/h (2 Bft) 95,74 %
26.12.2017 22:20 3,9 C 3,3 C 2,2 C 88 % 0 lf 995,7 hPa 0,0 l/m 0 min 0 min 0 W/m 13,5 km/h (3 Bft) 97,87 %
26.12.2017 22:22 3,9 C 3,9 C 2,2 C 89 % 0 lf 995,6 hPa 0,0 l/m 0 min 0 min 0 W/m 15,8 km/h (3 Bft) 93,62 %
26.12.2017 22:24 3,8 C 3,9 C 2,2 C 89 % 0 lf 995,6 hPa 0,0 l/m 0 min 0 min 0 W/m 15,8 km/h (3 Bft) 95,74 %
26.12.2017 22:26 3,8 C 3,9 C 2,2 C 89 % 0 lf 995,5 hPa 0,0 l/m 0 min 0 min 0 W/m 18,0 km/h (3 Bft) 93,48 %
26.12.2017 22:28 3,8 C 3,9 C 2,2 C 89 % 0 lf 995,5 hPa 0,0 l/m 0 min 0 min 0 W/m 22,5 km/h (4 Bft) 97,87 %
26.12.2017 22:30 3,8 C 3,9 C 2,2 C 89 % 0 lf 995,5 hPa 0,0 l/m 0 min 0 min 0 W/m 20,3 km/h (4 Bft) 95,74 %
26.12.2017 22:32 3,8 C 3,9 C 2,2 C 89 % 0 lf 995,5 hPa 0,0 l/m 0 min 0 min 0 W/m 15,8 km/h (3 Bft) 95,74 %
26.12.2017 22:34 3,8 C 3,9 C 2,2 C 89 % 0 lf 995,4 hPa 0,0 l/m 0 min 0 min 0 W/m 22,5 km/h (4 Bft) 97,87 %
26.12.2017 22:36 3,8 C 3,9 C 2,2 C 89 % 0 lf 995,3 hPa 0,0 l/m 0 min 0 min 0 W/m 24,8 km/h (4 Bft) 97,87 %
26.12.2017 22:38 3,8 C 3,9 C 2,2 C 89 % 0 lf 995,2 hPa 0,0 l/m 0 min 0 min 0 W/m 15,8 km/h (3 Bft) 97,83 %
26.12.2017 22:40 3,8 C 3,9 C 2,2 C 90 % 0 lf 995,2 hPa 0,0 l/m 0 min 0 min 0 W/m 18,0 km/h (3 Bft) 100,00 %
26.12.2017 22:42 3,8 C 3,9 C 2,2 C 90 % 0 lf 995,2 hPa 0,0 l/m 0 min 0 min 0 W/m 18,0 km/h (3 Bft) 100,00 %
26.12.2017 22:44 3,8 C 3,9 C 2,2 C 90 % 0 lf 995,1 hPa 0,0 l/m 0 min 0 min 0 W/m 13,5 km/h (3 Bft) 100,00 %
26.12.2017 22:46 3,8 C 3,9 C 2,8 C 90 % 0 lf 995,0 hPa 0,0 l/m 0 min 0 min 0 W/m 18,0 km/h (3 Bft) 100,00 %
26.12.2017 22:48 3,8 C 3,9 C 2,8 C 90 % 0 lf 995,0 hPa 0,0 l/m 0 min 0 min 0 W/m 18,0 km/h (3 Bft) 100,00 %
26.12.2017 22:50 3,8 C 3,9 C 2,8 C 90 % 0 lf 994,9 hPa 0,0 l/m 0 min 0 min 0 W/m 15,8 km/h (3 Bft) 93,62 %
26.12.2017 22:52 3,9 C 3,9 C 2,8 C 90 % 0 lf 994,8 hPa 0,0 l/m 0 min 0 min 0 W/m 20,3 km/h (4 Bft) 97,87 %
26.12.2017 22:54 3,9 C 3,9 C 2,8 C 90 % 0 lf 994,8 hPa 0,0 l/m 0 min 0 min 0 W/m 20,3 km/h (4 Bft) 97,87 %
26.12.2017 22:56 3,9 C 3,9 C 2,8 C 90 % 0 lf 994,7 hPa 0,0 l/m 0 min 0 min 0 W/m 15,8 km/h (3 Bft) 97,87 %
26.12.2017 22:58 3,9 C 3,9 C 2,8 C 90 % 0 lf 994,6 hPa 0,0 l/m 0 min 0 min 0 W/m 18,0 km/h (3 Bft) 97,87 %
26.12.2017 23:00 3,9 C 3,9 C 2,8 C 91 % 0 lf 994,6 hPa 0,0 l/m 0 min 0 min 0 W/m 22,5 km/h (4 Bft) 100,00 %
26.12.2017 23:02 3,9 C 3,9 C 2,8 C 91 % 0 lf 994,6 hPa 0,0 l/m 0 min 0 min 0 W/m 20,3 km/h (4 Bft) 100,00 %
26.12.2017 23:04 3,9 C 3,9 C 2,8 C 91 % 0 lf 994,6 hPa 0,0 l/m 0 min 0 min 0 W/m 15,8 km/h (3 Bft) 100,00 %
26.12.2017 23:06 3,9 C 3,9 C 2,8 C 91 % 0 lf 994,6 hPa 0,0 l/m 0 min 0 min 0 W/m 11,3 km/h (2 Bft) 93,62 %
26.12.2017 23:08 3,9 C 3,9 C 2,8 C 91 % 0 lf 994,5 hPa 0,0 l/m 0 min 0 min 0 W/m 22,5 km/h (4 Bft) 100,00 %
26.12.2017 23:10 3,9 C 3,9 C 2,8 C 91 % 0 lf 994,5 hPa 0,0 l/m 0 min 0 min 0 W/m 18,0 km/h (3 Bft) 97,87 %
26.12.2017 23:12 3,9 C 3,9 C 2,8 C 91 % 0 lf 994,5 hPa 0,0 l/m 0 min 0 min 0 W/m 24,8 km/h (4 Bft) 100,00 %
26.12.2017 23:14 3,9 C 3,9 C 2,8 C 91 % 0 lf 994,5 hPa 0,0 l/m 0 min 0 min 0 W/m 20,3 km/h (4 Bft) 100,00 %
26.12.2017 23:16 3,9 C 3,9 C 2,8 C 91 % 0 lf 994,4 hPa 0,0 l/m 0 min 0 min 0 W/m 18,0 km/h (3 Bft) 100,00 %
26.12.2017 23:18 3,9 C 3,9 C 2,8 C 91 % 0 lf 994,4 hPa 0,0 l/m 0 min 0 min 0 W/m 22,5 km/h (4 Bft) 100,00 %
26.12.2017 23:20 4,0 C 3,9 C 2,8 C 91 % 0 lf 994,4 hPa 0,0 l/m 0 min 0 min 0 W/m 20,3 km/h (4 Bft) 100,00 %
26.12.2017 23:22 4,0 C 3,9 C 2,8 C 91 % 0 lf 994,4 hPa 0,0 l/m 0 min 0 min 0 W/m 24,8 km/h (4 Bft) 95,74 %
26.12.2017 23:24 4,0 C 3,9 C 2,8 C 91 % 0 lf 994,4 hPa 0,0 l/m 0 min 0 min 0 W/m 20,3 km/h (4 Bft) 95,65 %
26.12.2017 23:26 4,0 C 3,9 C 2,8 C 91 % 0 lf 994,3 hPa 0,0 l/m 0 min 0 min 0 W/m 13,5 km/h (3 Bft) 97,87 %
26.12.2017 23:28 4,0 C 3,9 C 2,8 C 91 % 0 lf 994,3 hPa 0,0 l/m 0 min 0 min 0 W/m 22,5 km/h (4 Bft) 95,74 %
26.12.2017 23:30 4,0 C 3,9 C 2,8 C 91 % 0 lf 994,2 hPa 0,0 l/m 0 min 0 min 0 W/m 22,5 km/h (4 Bft) 97,87 %
26.12.2017 23:32 4,0 C 3,9 C 2,8 C 91 % 0 lf 994,1 hPa 0,0 l/m 0 min 0 min 0 W/m 22,5 km/h (4 Bft) 95,74 %
26.12.2017 23:34 4,1 C 3,9 C 2,8 C 91 % 0 lf 994,0 hPa 0,0 l/m 0 min 0 min 0 W/m 22,5 km/h (4 Bft) 97,87 %
26.12.2017 23:36 4,1 C 3,9 C 2,8 C 91 % 0 lf 993,8 hPa 0,0 l/m 0 min 0 min 0 W/m 18,0 km/h (3 Bft) 95,65 %
26.12.2017 23:38 4,1 C 3,9 C 2,8 C 91 % 0 lf 993,7 hPa 0,0 l/m 0 min 0 min 0 W/m 20,3 km/h (4 Bft) 95,74 %
26.12.2017 23:40 4,1 C 3,9 C 2,8 C 91 % 0 lf 993,7 hPa 0,0 l/m 0 min 0 min 0 W/m 29,3 km/h (5 Bft) 97,87 %
26.12.2017 23:42 4,1 C 3,9 C 2,8 C 91 % 0 lf 993,7 hPa 0,0 l/m 0 min 0 min 0 W/m 15,8 km/h (3 Bft) 93,62 %
26.12.2017 23:44 4,1 C 3,9 C 2,8 C 91 % 0 lf 993,7 hPa 0,0 l/m 0 min 0 min 0 W/m 24,8 km/h (4 Bft) 97,87 %
26.12.2017 23:46 4,1 C 3,9 C 2,8 C 91 % 0 lf 993,6 hPa 0,0 l/m 0 min 0 min 0 W/m 20,3 km/h (4 Bft) 97,87 %
26.12.2017 23:48 4,1 C 3,9 C 2,8 C 91 % 0 lf 993,5 hPa 0,0 l/m 0 min 0 min 0 W/m 18,0 km/h (3 Bft) 97,83 %
26.12.2017 23:50 4,1 C 3,9 C 2,8 C 91 % 0 lf 993,6 hPa 0,0 l/m 0 min 0 min 0 W/m 24,8 km/h (4 Bft) 95,74 %
26.12.2017 23:52 4,1 C 4,4 C 2,8 C 91 % 0 lf 993,6 hPa 0,0 l/m 0 min 0 min 0 W/m 20,3 km/h (4 Bft) 95,74 %
26.12.2017 23:54 4,2 C 4,4 C 2,8 C 91 % 0 lf 993,4 hPa 0,0 l/m 0 min 0 min 0 W/m 20,3 km/h (4 Bft) 95,74 %
26.12.2017 23:56 4,2 C 4,4 C 2,8 C 91 % 0 lf 993,4 hPa 0,0 l/m 0 min 0 min 0 W/m 22,5 km/h (4 Bft) 91,49 %
26.12.2017 23:58 4,2 C 4,4 C 2,8 C 91 % 0 lf 993,3 hPa 0,0 l/m 0 min 0 min 0 W/m 18,0 km/h (3 Bft) 97,87 %
_ Min-Zeit 02:40 01:40 02:18 06:16 00:00 23:58 - - - - 03:02 05:40
Minimum _ 2,4 C 2,2 C 0,6 C 80 % 0 lf 993,3 hPa - - - - 11,3 km/h (2 Bft) 37,72 %
_ Max-Zeit 06:38 12:30 06:34 04:30 06:38 00:02 06:44 11:44 06:36 12:34 07:02 01:18
Maximum _ 8,6 C 12,2 C 7,2 C 95 % 15 lf 1006,6 hPa 0,2 l/m 2 min 2 min 265 W/m 65,3 km/h
W-SW (8 Bft)
100,00 %
Durchschnitt _ 5,2 C 5,2 C 3,5 C 88 % 3 lf 999,8 hPa #2,8 l/m #56 min. #3:36 h 74 W/m 26,4 km/h (4 Bft) 96,21 %
© 2017 W. Hausmann